                ,  0.671,  0.819,  0.966,  1.114,  1.262,  1.410,  1.558,  1.705,  1.853,  2.001,  2.149,  2.297,  2.445,  2.592,  2.740,  2.888,  3.036,  3.184,  3.331,  3.479,  3.627,  3.775,  3.923,  4.070,  4.218,  4.366,  4.514,  4.662,  4.809,  4.957,  5.105,  5.253,  5.401,  5.549,  5.696,  5.844,  5.992,  6.140,  6.288,  6.435,  6.583,  6.731,  6.879,  7.027,  7.174,  7.322,  7.470,  7.618,  7.766,  7.914,  8.061,  8.209,  8.357,  8.505,  8.653,  8.800,  8.948,  9.096,  9.244,  9.392,  9.539,  9.687,  9.835
2005/08/25 00:00,  999.0,  999.0,  999.0,  999.0,  -10.4,  -14.1,  -17.2,  -13.3,  999.0,  -16.0,  -13.8,  -12.8,  -14.2,  -14.9,  -14.5,  -16.6,  -12.4,  -11.3,  -12.9,  -12.4,  -12.8,  999.0,  -11.0,  999.0,  999.0,   -7.1,  999.0,  999.0,  999.0,  999.0,  999.0,  999.0,  999.0,  999.0,  999.0,  999.0,  999.0,  999.0,  999.0,  999.0,    0.1,  999.0,  999.0,    0.4,   -0.1,    0.1,    0.0,    0.1,   -0.2,   -0.3,  999.0,  999.0,  999.0,  999.0,  999.0,  999.0,  999.0,  999.0,  999.0,  999.0,  999.0,  999.0,  999.0
2005/08/25 00:10,  999.0,  999.0,   -0.1,   -0.6,   -7.9,  -11.2,  -13.4,  -15.6,  -12.4,  -14.1,  -13.9,  -14.3,  -13.6,  -13.8,  -14.4,  -14.2,  -13.8,  -13.1,  -12.9,  -13.4,  -13.3,  999.0,  999.0,  -10.9,   -8.3,   -7.2,   -5.9,   -4.1,  999.0,  999.0,  999.0,  999.0,  999.0,  999.0,  999.0,  999.0,  999.0,  999.0,  999.0,  999.0,  999.0,  -27.5,  999.0,  999.0,  -15.9,  -25.5,  999.0,  -27.8,  -27.7,  999.0,  999.0,  999.0,  999.0,  999.0,  999.0,  999.0,  999.0,  999.0,  999.0,  999.0,  999.0,  999.0,  999.0
2005/08/25 00:20,  999.0,  999.0,  999.0,  999.0,   -7.7,  -14.1,  -13.9,  -14.3,  -15.5,  -15.4,  -15.8,  -14.6,  -14.6,  -14.8,  -14.5,  -15.8,  -14.9,  -14.2,  -13.7,  -13.8,  -12.3,  999.0,  999.0,  999.0,  999.0,   -5.8,   -3.7,   -2.9,   -1.1,  999.0,  999.0,  999.0,  999.0,  999.0,  -32.6,  -35.8,  -34.1,  -30.1,  -30.8,  -32.0,  999.0,  999.0,  -37.6,  -43.7,  -36.3,  -47.8,  999.0,  999.0,  999.0,  999.0,  999.0,  999.0,  999.0,  999.0,  999.0,  999.0,  999.0,  999.0,  999.0,  999.0,  999.0,  999.0,  999.0
2005/08/25 00:30,  999.0,   -4.9,  999.0,   -9.9,  -12.5,  -14.5,  -13.8,  -13.0,  -14.3,  -14.3,  -14.7,  -14.9,  -15.2,  -15.7,  -14.7,  -15.2,  -15.0,  -15.9,  -13.5,  -12.4,  -12.0,  -10.9,   -9.0,  999.0,   -9.7,  999.0,  999.0,  999.0,  999.0,  999.0,  999.0,  999.0,  -55.0,  -46.4,  -42.1,  -46.8,  -47.0,  -46.9,  -55.1,  -47.2,  -43.6,  -39.3,  -40.0,  999.0,  -44.2,  -44.9,  999.0,  999.0,  999.0,  999.0,  999.0,  999.0,  999.0,  999.0,  999.0,  999.0,  999.0,  999.0,  999.0,  999.0,  999.0,  999.0,  999.0
2005/08/25 00:40,  999.0,  -10.1,  -13.9,  -14.0,  -14.1,  -14.9,  -18.4,  -16.8,  -15.8,  -15.9,  -15.5,  -14.4,  -14.4,  -14.6,  -14.2,  -14.8,  -16.7,  -13.2,  -14.0,  -13.5,  -12.9,  -11.3,   -9.9,   -9.6,   -9.7,   -8.5,   -7.2,  999.0,  999.0,  999.0,  999.0,  999.0,  999.0,  999.0,  999.0,  999.0,  999.0,  -55.0,  -55.1,  -55.2,  -55.1,  -55.1,  -55.2,  -55.3,  -55.1,  -55.2,  -55.4,  -55.1,  999.0,  999.0,  999.0,  999.0,  999.0,  999.0,  999.0,  999.0,  999.0,  999.0,  999.0,  999.0,  999.0,  999.0,  999.0
2005/08/25 00:50,  999.0,  999.0,  999.0,  999.0,  -11.8,  -14.4,  -15.4,  -14.2,  -14.7,  -14.8,  -14.1,  -14.0,  -13.3,  -13.7,  -13.9,  -14.0,  -13.8,  -13.6,  -13.0,  -12.5,  -11.1,  -10.2,   -9.1,   -8.0,   -7.8,   -6.6,   -3.4,   -4.2,  999.0,  999.0,  999.0,  999.0,  999.0,  999.0,  999.0,  999.0,  999.0,  999.0,  999.0,  999.0,  999.0,  999.0,  999.0,  999.0,  -55.2,  -55.3,  -55.3,  -55.2,  -55.0,  -55.4,  -55.3,  -55.0,  999.0,  999.0,  999.0,  999.0,  999.0,  999.0,  999.0,  999.0,  999.0,  999.0,  999.0
2005/08/25 01:00,  999.0,  999.0,  999.0,  999.0,  -10.4,  -14.8,  -15.3,  -15.6,  -15.1,  -15.7,  -14.5,  -14.2,  -13.9,  -14.0,  -13.5,  -13.7,  -14.1,  -14.7,  -12.9,  -11.0,  -10.2,   -9.2,   -6.8,   -6.1,   -0.8,  999.0,   -0.6,  999.0,   -0.6,  999.0,  999.0,  999.0,  999.0,  999.0,  999.0,  999.0,  999.0,  -55.1,  -55.1,  -55.1,  -55.1,  -55.2,  -55.2,  -55.1,  -55.1,  -55.2,  -55.1,  -55.0,  -55.5,  -55.2,  -55.4,  999.0,  999.0,  999.0,  999.0,  999.0,  999.0,  999.0,  999.0,  999.0,  999.0,  999.0,  999.0
2005/08/25 01:10,  999.0,  999.0,  999.0,  999.0,  -11.0,  -15.3,  -16.5,  -15.3,  -16.4,  -16.4,  -15.8,  -14.7,  -14.9,  -14.1,  -15.0,  -15.1,  -16.0,  -14.3,  -14.8,  -13.1,  -11.5,   -9.6,   -7.5,   -6.6,  999.0,   -3.1,   -2.1,   -0.2,    1.5,  999.0,  999.0,  999.0,  999.0,  999.0,  999.0,  999.0,  999.0,  999.0,  999.0,  999.0,  -55.1,  999.0,  -55.3,  -55.2,  -55.4,  -55.5,  -55.2,  -55.2,  -55.3,  -55.2,  -55.4,  -55.3,  999.0,  999.0,  999.0,  999.0,  999.0,  999.0,  999.0,  999.0,  999.0,  999.0,  999.0
2005/08/25 01:20,  999.0,  999.0,  999.0,  999.0,  -11.4,  -16.1,  -17.2,  -17.6,  -17.2,  -15.5,  -15.6,  -15.5,  -15.9,  -14.9,  -15.2,  -15.6,  -14.7,  -11.9,  -14.0,  999.0,  999.0,  -11.4,   -7.6,   -6.9,   -3.4,   -3.7,   -1.4,   -0.6,  999.0,  999.0,  999.0,  999.0,  999.0,  999.0,  999.0,  999.0,  999.0,  999.0,  999.0,  999.0,  999.0,  999.0,  -55.1,  -55.0,  -55.2,  -55.1,  -55.4,  -55.3,  -55.5,  -55.5,  999.0,  -55.7,  999.0,  999.0,  999.0,  999.0,  999.0,  999.0,  999.0,  999.0,  999.0,  999.0,  999.0
2005/08/25 01:30,  999.0,  999.0,  999.0,  999.0,  999.0,  -17.3,  -18.1,  -17.4,  -17.8,  -17.5,  -16.3,  -17.2,  -16.6,  -15.0,  -14.9,  -15.5,  -15.5,  -15.1,  -14.4,  -13.4,  -12.7,  -12.3,   -9.7,   -7.6,   -6.9,   -5.6,   -3.4,    0.2,  999.0,  999.0,  999.0,  999.0,  999.0,  999.0,  999.0,  999.0,  999.0,  999.0,  999.0,  999.0,  999.0,  999.0,  999.0,  -55.3,  999.0,  999.0,  -55.8,  -55.2,  -55.6,  -55.3,  -55.4,  -55.5,  999.0,  999.0,  999.0,  999.0,  999.0,  999.0,  999.0,  999.0,  999.0,  999.0,  999.0
2005/08/25 01:40,  999.0,  999.0,  999.0,  999.0,  -13.9,  -17.3,  -17.6,  -18.0,  -18.4,  -17.5,  -17.0,  -16.4,  -16.6,  -16.0,  -14.8,  -15.1,  -15.3,  -15.0,  -14.0,  -13.1,  -12.1,  -11.2,  -10.7,   -9.1,   -6.1,  999.0,   -2.6,   -2.4,   -0.2,  999.0,  999.0,  999.0,  999.0,  999.0,  999.0,  999.0,  999.0,  999.0,  999.0,  999.0,  999.0,  999.0,  999.0,  -55.1,  -55.2,  -55.4,  -27.6,  -36.8,  -27.6,  -27.9,  999.0,  999.0,  999.0,  999.0,  999.0,  999.0,  999.0,  999.0,  999.0,  999.0,  999.0,  999.0,  999.0
2005/08/25 01:50,  999.0,  999.0,  999.0,  999.0,  -12.9,  -16.5,  -19.4,  -17.3,  -18.1,  -17.5,  -17.0,  -17.4,  -15.9,  -16.8,  -15.5,  -14.2,  -14.0,  -14.0,  -13.3,  -11.7,  -11.2,  -10.3,  -10.0,   -7.9,   -3.6,   -3.9,   -3.2,  999.0,  999.0,  999.0,  999.0,  -28.2,  999.0,  -22.1,  999.0,  999.0,  999.0,  999.0,  -55.1,  -55.2,  -55.1,  -55.1,  -55.2,  -55.2,  -55.2,  -55.4,  -55.3,  -55.1,  999.0,  999.0,  -55.3,  999.0,  -55.1,  999.0,  999.0,  999.0,  999.0,  999.0,  999.0,  999.0,  999.0,  999.0,  999.0
2005/08/25 02:00,  999.0,  999.0,  999.0,  999.0,  999.0,  -16.2,  -17.4,  -18.8,  -18.4,  -18.3,  -19.1,  -19.8,  -18.2,  -17.6,  -16.8,  -16.3,  -16.0,  -15.9,  -15.6,  -14.9,  -13.5,  -12.5,  -11.1,   -9.7,  999.0,  999.0,  999.0,   -6.1,  999.0,  999.0,  999.0,  999.0,  999.0,  999.0,  999.0,  999.0,  999.0,  -54.9,  -55.0,  -55.1,  -55.1,  -55.2,  -55.2,  -55.2,  -55.2,  -55.2,  -55.3,  -55.5,  -55.5,  -55.0,  -55.3,  999.0,  -54.9,  999.0,  999.0,  999.0,  999.0,  999.0,  999.0,  999.0,  999.0,  999.0,  999.0
2005/08/25 02:10,  999.0,  999.0,  999.0,  999.0,  999.0,  999.0,  -19.1,  -18.9,  -18.0,  -17.7,  -18.1,  -17.1,  -18.2,  -14.9,  -17.2,  -17.5,  -17.1,  -15.4,  -14.4,  -14.7,  -13.1,  -12.3,  -11.4,   -9.9,  -10.6,  999.0,  999.0,   -4.8,   -4.4,   -6.6,   -2.7,  999.0,  999.0,  999.0,  999.0,  999.0,  999.0,  -55.1,  -55.2,  -55.1,  -55.3,  -55.3,  -55.2,  -55.2,  -55.3,  -55.4,  -55.0,  -55.3,  -55.4,  999.0,  999.0,  999.0,  999.0,  999.0,  999.0,  999.0,  999.0,  999.0,  999.0,  999.0,  999.0,  999.0,  999.0
2005/08/25 02:20,  999.0,  999.0,  999.0,  999.0,  -16.8,  -19.3,  -19.3,  -18.7,  -18.4,  -18.6,  -19.5,  -19.1,  -18.9,  -18.1,  -19.1,  -17.6,  -17.4,  -18.8,  -18.9,  -17.9,  -16.6,  -15.4,  -13.5,  -12.2,  -10.8,   -8.1,  999.0,   -2.3,    1.0,   -1.4,  999.0,  999.0,  999.0,  -29.1,  -30.5,  -30.3,  -30.7,  999.0,  999.0,  999.0,  999.0,  999.0,  999.0,  999.0,  999.0,  -55.2,  -55.5,  -55.3,  -55.2,  999.0,  -55.5,  -55.4,  -41.6,  999.0,  999.0,  999.0,  999.0,  999.0,  999.0,  999.0,  999.0,  999.0,  999.0
2005/08/25 02:30,  999.0,  999.0,  999.0,  999.0,  999.0,  -15.1,  -16.8,  -19.3,  -19.7,  -18.1,  -18.7,  -18.5,  -17.6,  -17.3,  -17.1,  -16.8,  -16.2,  -15.4,  -15.3,  -16.5,  -13.2,  -12.5,  999.0,  999.0,  999.0,  999.0,  999.0,  999.0,  999.0,  999.0,   -4.9,   -8.2,  -17.7,  -30.2,  -25.0,  -24.2,  -30.2,  -31.2,  999.0,  999.0,  999.0,  999.0,  999.0,  -55.0,  -55.1,  -55.1,  -55.6,  -55.4,  -55.0,  -55.2,  999.0,  999.0,  999.0,  999.0,  999.0,  999.0,  999.0,  999.0,  999.0,  999.0,  999.0,  999.0,  999.0
2005/08/25 02:40,  999.0,  999.0,  999.0,  999.0,  -10.4,  -11.8,  999.0,  -18.4,  -18.9,  -18.3,  -18.0,  -17.6,  -16.8,  -16.3,  -16.5,  -16.0,  -15.2,  -14.7,  -14.6,  -14.6,  -14.1,  -13.2,  -12.7,  -11.0,  -11.2,   -9.1,   -8.1,   -6.8,   -5.6,   -4.4,   -4.6,   -3.5,   -2.4,   -2.0,   -2.6,   -2.2,   -2.0,  999.0,  -29.4,  999.0,  999.0,  999.0,  999.0,  999.0,  -55.1,  -55.2,  -55.2,  -55.2,  -55.3,  -55.5,  -55.2,  -55.5,  -55.3,  999.0,  999.0,  999.0,  999.0,  999.0,  999.0,  999.0,  999.0,  999.0,  999.0
2005/08/25 02:50,  999.0,  999.0,  999.0,  999.0,   -9.4,  -11.0,  999.0,  -18.2,  -18.3,  -18.2,  -18.1,  -17.9,  -17.7,  -17.4,  -15.7,  -15.6,  -15.0,  -15.2,  -15.3,  -15.0,  -15.2,  -15.0,  999.0,  999.0,  -10.7,   -9.8,  -18.4,  -12.3,  -13.3,  -11.7,  -11.2,  -11.4,  -12.7,  -16.1,  -27.9,  -28.9,  999.0,  999.0,  -55.2,  999.0,  -55.2,  -55.3,  -55.3,  -55.2,  -55.3,  -55.3,  -55.2,  -55.3,  -55.3,  -55.7,  -55.4,  -55.5,  999.0,  999.0,  999.0,  999.0,  999.0,  999.0,  999.0,  999.0,  999.0,  999.0,  999.0
2005/08/25 03:00,  999.0,  999.0,  999.0,  999.0,  -12.2,   -9.7,  -17.8,  -16.0,  -16.6,  -18.1,  -18.5,  -18.9,  -19.0,  -18.0,  -18.1,  -16.7,  -15.7,  -15.2,  -15.0,  -14.9,  -15.0,  -15.3,  -14.7,  -11.4,  -11.7,  999.0,  -10.7,  999.0,  999.0,  999.0,  999.0,  999.0,  -29.6,  -29.8,  -28.7,  -27.9,  -27.6,  999.0,  999.0,  999.0,  999.0,  999.0,  -27.2,  999.0,  999.0,  999.0,  999.0,  999.0,  999.0,  999.0,  999.0,  999.0,  999.0,  999.0,  999.0,  999.0,  999.0,  999.0,  999.0,  999.0,  999.0,  999.0,  999.0
2005/08/25 03:10,  999.0,  999.0,  999.0,  999.0,  -18.6,  -19.3,  -18.7,  -18.4,  -17.2,  -18.5,  -17.7,  -17.7,  -17.1,  -18.8,  -17.1,  -15.6,  -15.2,  -14.9,  -14.6,  -15.5,  999.0,  -13.7,  -14.3,  -12.6,  999.0,  999.0,  999.0,   -9.3,   -7.5,   -8.5,  -10.8,  -10.9,   -9.2,  -10.1,   -9.1,   -9.1,  999.0,  999.0,  999.0,  999.0,  999.0,  999.0,  999.0,  -55.0,  -55.0,  -54.8,  -55.1,  -55.2,  -55.2,  -55.2,  -55.4,  999.0,  999.0,  999.0,  999.0,  999.0,  999.0,  999.0,  999.0,  999.0,  999.0,  999.0,  999.0
2005/08/25 03:20,  999.0,   -9.0,  999.0,  999.0,   -9.4,   -8.3,  999.0,  999.0,  -16.9,  -17.6,  -17.6,  -16.9,  -15.8,  -17.3,  -16.8,  -15.8,  -17.2,  -17.1,  -16.4,  -12.0,  -17.9,  -13.9,  -12.1,  999.0,  999.0,   -7.6,  999.0,  999.0,   -7.2,   -5.9,  -15.0,  -19.6,  -10.1,   -8.0,   -4.7,  999.0,  999.0,  999.0,  999.0,  999.0,  999.0,  999.0,  999.0,  999.0,  999.0,  999.0,  -28.5,  999.0,  -55.3,    0.0,  999.0,  999.0,  999.0,  999.0,  999.0,  999.0,  999.0,  999.0,  999.0,  999.0,  999.0,  999.0,  999.0
2005/08/25 03:30,  999.0,  999.0,  999.0,  999.0,  999.0,  999.0,  -19.4,  -19.4,  -20.0,  -19.2,  -18.8,  -17.8,  -17.5,  -16.8,  -16.8,  -16.9,  -17.0,  -16.3,  -16.1,  -15.3,  -15.2,  -15.3,  -15.1,  999.0,  999.0,  999.0,   -9.7,  -10.9,  -10.1,  -10.8,  -10.4,   -7.4,   -3.4,  999.0,   -6.8,   -6.1,   -3.9,   -1.0,   -2.8,   -3.2,  999.0,  999.0,  999.0,  999.0,  999.0,  999.0,  999.0,  999.0,  999.0,  999.0,  999.0,  999.0,  999.0,  999.0,  999.0,  999.0,  999.0,  999.0,  999.0,  999.0,  999.0,  999.0,  999.0
2005/08/25 03:40,  999.0,  999.0,  999.0,  999.0,  999.0,  -12.1,  -17.8,  -17.5,  -18.4,  -17.8,  -17.6,  -17.1,  -16.5,  -16.7,  -17.8,  -17.7,  -17.7,  -17.3,  -17.5,  -17.5,  -14.6,  -15.2,  -14.4,  -15.9,  -14.0,  -14.4,  -13.9,  -12.5,  -12.7,  -13.8,  -11.5,  999.0,  999.0,  999.0,  999.0,  999.0,  999.0,  999.0,  999.0,  999.0,  -55.2,  -55.2,  999.0,  -55.1,  -55.1,  -55.2,  -55.3,  -55.0,  -55.3,  -55.1,  999.0,  999.0,  999.0,  999.0,  999.0,  999.0,  999.0,  999.0,  999.0,  999.0,  999.0,  999.0,  999.0
2005/08/25 03:50,  999.0,  999.0,  999.0,  999.0,  -16.0,  -17.3,  -18.0,  -18.5,  -18.7,  -19.6,  -19.6,  -19.5,  -18.5,  -19.3,  -18.8,  -18.1,  -17.9,  -18.5,  -18.3,  -16.4,  -16.6,  -15.5,  999.0,  999.0,  -11.6,  -11.4,  -10.9,   -9.9,   -9.6,   -8.0,   -6.4,  999.0,  999.0,  999.0,  999.0,  999.0,  999.0,  999.0,  999.0,  999.0,  999.0,  999.0,  999.0,  999.0,  999.0,  -27.4,  -35.2,  999.0,  -55.1,  -55.3,  -55.3,  -55.3,  -55.3,  -55.5,  999.0,  999.0,  999.0,  999.0,  999.0,  999.0,  999.0,  999.0,  999.0
2005/08/25 04:00,  999.0,  999.0,  999.0,  999.0,  999.0,  -19.2,  -20.4,  -19.7,  -20.1,  -20.1,  -19.3,  -19.4,  -19.7,  -19.7,  -18.6,  -17.9,  -17.6,  -18.0,  -17.7,  -14.4,   -7.7,  999.0,  999.0,  999.0,  -10.5,   -9.8,   -9.2,   -9.5,   -9.2,   -7.8,   -7.7,  999.0,  999.0,  999.0,  999.0,  999.0,  999.0,  999.0,  999.0,  -26.6,  -26.3,  999.0,  999.0,  999.0,  999.0,  999.0,  999.0,  999.0,  -55.2,  999.0,  999.0,  -55.3,  999.0,  999.0,  999.0,  999.0,  999.0,  999.0,  999.0,  999.0,  999.0,  999.0,  999.0
2005/08/25 04:10,  999.0,  999.0,  999.0,  999.0,  -16.8,  -20.0,  -17.4,  -17.0,  -19.0,  -20.1,  -20.1,  -19.4,  -18.7,  -19.3,  -19.0,  -18.2,  -18.3,  -18.9,  -18.6,  -16.7,  -15.2,  -14.8,  -14.0,  -12.1,  -11.7,  -11.5,  -10.4,   -9.4,   -9.0,   -8.2,   -8.2,  999.0,  999.0,  999.0,  999.0,  999.0,  999.0,  999.0,  999.0,  999.0,  -28.9,  -29.1,  -28.2,  999.0,  999.0,  999.0,  999.0,  999.0,  -55.2,  999.0,  -55.5,  999.0,  -55.5,  999.0,  999.0,  999.0,  999.0,  999.0,  999.0,  999.0,  999.0,  999.0,  999.0
2005/08/25 04:20,  999.0,  999.0,  999.0,  999.0,  999.0,  -20.7,  -21.4,  -19.9,  -18.9,  -19.4,  -19.0,  -18.6,  -18.3,  -18.0,  -16.5,  -16.2,  -16.1,  -16.0,  -16.9,  -16.1,  -15.1,  -14.5,  999.0,  -10.0,  999.0,  999.0,   -5.3,   -2.3,   -6.3,   -6.5,   -5.9,  999.0,  999.0,  999.0,  999.0,  999.0,  999.0,  999.0,  999.0,  999.0,  999.0,  999.0,  999.0,  999.0,  -55.1,  -55.2,  -55.1,  -55.2,  -55.3,  -55.4,  -55.3,  -55.2,  -55.3,  999.0,  999.0,  999.0,  999.0,  999.0,  999.0,  999.0,  999.0,  999.0,  999.0
2005/08/25 04:30,  999.0,  -15.1,  -15.8,  999.0,  -19.2,  -20.6,  -18.5,  -17.0,  -18.8,  -19.1,  -19.8,  -18.9,  -18.3,  -18.6,  -18.1,  -17.9,  -17.5,  -17.5,  -15.6,  -14.1,  -13.3,  -12.4,  -11.2,  -10.0,   -7.7,   -6.7,   -5.0,  999.0,   -4.6,   -4.8,   -5.0,   -3.9,   -4.4,  999.0,  999.0,  999.0,  999.0,  999.0,  999.0,  999.0,  999.0,  999.0,  999.0,  999.0,  999.0,  999.0,  -43.1,  -55.2,  999.0,  -55.5,  999.0,  999.0,  999.0,  999.0,  999.0,  999.0,  999.0,  999.0,  999.0,  999.0,  999.0,  999.0,  999.0
2005/08/25 04:40,  999.0,  -14.0,  999.0,  999.0,  999.0,   -9.4,  999.0,  999.0,  999.0,  -16.2,  -19.4,  -17.7,  -17.2,  -19.2,  -19.0,  -18.6,  -17.9,  -17.7,  -15.2,  -14.4,  -12.4,  -10.6,  -10.1,   -9.9,   -9.1,   -8.1,   -5.3,   -2.4,   -4.4,   -4.8,   -3.7,  999.0,  999.0,  999.0,  999.0,  999.0,  999.0,  999.0,  999.0,  999.0,  999.0,  -33.0,  -33.9,  -38.4,  -38.8,  -39.4,  -47.7,  -46.1,  999.0,  999.0,  999.0,  999.0,  999.0,  999.0,  999.0,  999.0,  999.0,  999.0,  999.0,  999.0,  999.0,  999.0,  999.0
2005/08/25 04:50,  999.0,  -13.5,  -19.2,  999.0,  -16.4,  -18.3,  -16.5,  -16.6,  -17.2,  -16.9,  -17.8,  -20.4,  -20.0,  -18.4,  -19.3,  -17.9,  -17.3,  -16.3,  -15.8,  -15.5,  -13.5,  -13.3,  -10.2,  -10.0,   -7.1,   -7.4,  999.0,   -3.1,  999.0,  999.0,  999.0,  999.0,  999.0,  999.0,  -45.9,  -48.3,  -55.0,  -55.1,  -55.1,  -55.1,  -55.1,  -55.3,  -55.3,  -55.1,  -55.3,  -55.1,  -55.1,  -55.3,  -55.2,  -55.2,  -55.1,  -55.3,  999.0,  999.0,  999.0,  999.0,  999.0,  999.0,  999.0,  999.0,  999.0,  999.0,  999.0
2005/08/25 05:00,  999.0,  -14.0,  -14.5,  -14.0,  -17.5,  -20.9,  999.0,  -19.6,  -18.6,  -18.2,  -18.1,  -17.9,  -17.2,  -17.6,  -18.2,  -18.5,  -18.6,  -17.8,  -18.0,  -17.8,  -17.4,  -14.8,  999.0,  -11.6,   -8.6,   -6.8,   -5.5,  999.0,  999.0,  999.0,  999.0,  999.0,  999.0,  999.0,  999.0,  -55.0,  -55.3,  -42.0,  999.0,  999.0,  999.0,  999.0,  -41.4,  -40.9,  999.0,  999.0,  999.0,  999.0,  999.0,  -55.2,  -55.2,  -55.4,  999.0,  999.0,  999.0,  999.0,  999.0,  999.0,  999.0,  999.0,  999.0,  999.0,  999.0
2005/08/25 05:10,  999.0,  -12.8,  -14.2,  -15.4,  -18.0,  -20.7,  -19.9,  -17.7,  -17.9,  -18.3,  -18.6,  -17.7,  -16.9,  -18.0,  -18.5,  -18.8,  -18.4,  -18.2,  -18.2,  -19.1,  999.0,  999.0,  999.0,  999.0,  999.0,   -9.3,   -7.2,  999.0,  999.0,  999.0,  999.0,  999.0,  999.0,  999.0,  999.0,  -55.2,  -55.1,  -45.9,  -46.0,  -46.0,  -51.8,  -48.2,  -55.1,  -55.2,  -55.3,  -55.3,  -55.2,  -55.3,  -55.2,  999.0,  -55.2,  -55.4,  -55.2,  -55.7,  999.0,  999.0,  999.0,  999.0,  999.0,  999.0,  999.0,  999.0,  999.0
2005/08/25 05:20,  999.0,  -12.6,  -15.0,  -17.7,  -19.7,  -19.5,  -19.8,  -18.9,  -19.0,  -17.2,  -18.7,  -18.2,  -17.0,  -17.6,  -17.1,  -16.1,  -16.1,  -17.6,  -15.0,  999.0,  -15.5,  999.0,  999.0,  999.0,  999.0,  999.0,  999.0,  999.0,  -48.7,  -55.1,  -55.1,  -55.2,  -51.8,  -55.2,  -55.2,  -55.2,  -55.1,  -55.2,  -55.2,  -55.1,  -55.3,  -55.3,  -55.2,  -55.3,  -55.3,  -55.3,  -55.4,  -55.5,  -55.6,  -55.1,  -55.4,  -55.7,  -55.3,  999.0,  999.0,  999.0,  999.0,  999.0,  999.0,  999.0,  999.0,  999.0,  999.0
2005/08/25 05:30,  999.0,  -13.7,  -15.3,  -16.2,  -15.9,  -19.2,  -19.3,  -18.3,  -18.0,  -17.9,  -17.1,  -17.1,  -17.3,  -18.3,  -17.3,  -16.3,  -15.1,  -16.4,  -16.7,  999.0,  999.0,  999.0,  999.0,  999.0,  999.0,  999.0,  999.0,  999.0,  999.0,  999.0,  999.0,  -54.9,  -55.0,  -55.0,  -55.0,  -55.1,  -55.0,  -55.1,  -55.0,  -55.1,  -55.1,  -55.2,  -55.2,  -55.1,  -55.2,  -55.2,  -55.4,  -55.2,  -55.1,  -55.1,  -55.3,  -55.4,  -55.3,  999.0,  999.0,  999.0,  999.0,  999.0,  999.0,  999.0,  999.0,  999.0,  999.0
2005/08/25 05:40,  999.0,  -14.7,  -14.7,  -15.9,  -17.6,  -20.1,  -21.0,  -18.1,  -18.9,  -19.9,  -20.2,  -17.8,  -18.9,  -17.9,  -18.2,  -18.1,  -18.1,  -17.3,  -16.6,  -15.3,  -15.0,  -11.3,  -10.4,  -10.8,  -10.1,  999.0,   -6.9,   -8.5,   -6.2,  999.0,  999.0,  -55.1,  -50.5,  -55.1,  -55.1,  -52.2,  -50.9,  -49.7,  -55.2,  -55.2,  -55.0,  -55.3,  -55.2,  -55.1,  -55.3,  -49.2,  -55.4,  -55.1,  999.0,  -55.1,  -55.5,  -55.4,  -54.5,  999.0,  -55.2,  999.0,  999.0,  999.0,  999.0,  999.0,  999.0,  999.0,  999.0
2005/08/25 05:50,  999.0,  -14.8,  -17.1,  -18.2,  -19.4,  -20.3,  -20.7,  -20.7,  -20.4,  -20.4,  -21.0,  -20.2,  -18.6,  -16.0,  -15.4,  -15.2,  -16.0,  -16.0,  -15.2,  -16.4,  -15.6,  -14.7,  999.0,  999.0,  999.0,  999.0,  999.0,  999.0,  -55.1,  -55.1,  -55.1,  -55.1,  -55.1,  -55.1,  -55.2,  -55.1,  -55.1,  -55.1,  -55.1,  -55.1,  -55.1,  -55.2,  -55.2,  -55.1,  -55.3,  -55.4,  -55.6,  -55.5,  -55.4,  -55.5,  -55.7,  -55.2,  -55.8,  999.0,  999.0,  999.0,  999.0,  999.0,  999.0,  999.0,  999.0,  999.0,  999.0
2005/08/25 06:00,  999.0,  999.0,  999.0,  999.0,  -15.9,  -20.7,  -20.3,  -20.3,  -19.3,  -19.3,  -18.0,  -17.7,  -17.1,  -16.6,  -17.0,  -15.6,  -15.3,  -15.7,  -13.1,  999.0,  999.0,  999.0,  999.0,  999.0,  999.0,  999.0,  999.0,  999.0,  -53.7,  -55.1,  -55.1,  -55.1,  -55.1,  -55.2,  -55.2,  -55.1,  -55.1,  -55.2,  -55.2,  -55.2,  -55.2,  -55.3,  -55.3,  -55.2,  -55.2,  -55.4,  -55.3,  -55.4,  -55.4,  -55.1,  -55.5,  -55.6,  999.0,  -55.5,  999.0,  999.0,  999.0,  999.0,  999.0,  999.0,  999.0,  999.0,  999.0
2005/08/25 06:10,  999.0,  999.0,  999.0,  999.0,  999.0,  -18.0,  -17.9,  -18.6,  -18.0,  -18.0,  -17.7,  -17.6,  -16.1,  -15.9,  -15.9,  -15.9,  -15.8,  -16.4,  -16.0,  999.0,  999.0,  999.0,  999.0,  999.0,  999.0,  -41.8,  -42.1,  -41.7,  -41.4,  -37.9,  -38.2,  -41.6,  -38.4,  -38.3,  -38.3,  -39.0,  -42.2,  -47.5,  -39.8,  -35.5,  -36.6,  -45.4,  -49.0,  -55.2,  -55.2,  -55.3,  -55.2,  -55.4,  -55.2,  -55.5,  -55.3,  -55.2,  -55.3,  -55.3,  999.0,  999.0,  -55.0,  999.0,  999.0,  999.0,  999.0,  999.0,  999.0
2005/08/25 06:20,  999.0,  999.0,  999.0,  999.0,  -19.2,  -20.0,  -18.6,  -18.7,  -17.7,  -17.3,  -16.5,  -16.3,  -15.7,  -15.8,  -15.4,  -15.3,  -15.1,  -14.9,  -15.6,  -14.5,  999.0,  999.0,  999.0,  999.0,  999.0,  999.0,  999.0,  999.0,  -54.9,  -50.8,  -55.0,  -50.9,  -40.7,  -50.1,  -50.1,  -55.1,  -49.7,  -49.9,  -55.1,  -54.9,  -55.1,  -55.1,  -55.0,  -45.1,  -45.0,  -55.0,  -55.1,  -55.4,  -55.5,  -55.2,  -55.2,  -55.7,  999.0,  999.0,  -55.1,  999.0,  999.0,  999.0,  999.0,  999.0,  999.0,  999.0,  999.0
2005/08/25 06:30,  999.0,  999.0,  999.0,  999.0,  -20.3,  -18.8,  -19.7,  -18.3,  -18.0,  -18.3,  -18.8,  -17.0,  -15.1,  -15.3,  -14.7,  -14.8,  -15.4,  -15.9,  -15.1,  -14.8,  -12.6,  -11.1,  999.0,  999.0,  999.0,  999.0,  999.0,  999.0,  999.0,  999.0,  999.0,  999.0,  999.0,  999.0,  999.0,  999.0,  999.0,  -30.2,  -21.8,  -30.1,  -24.7,  -25.4,  -26.0,  -12.5,  -26.1,  999.0,  999.0,  999.0,  999.0,  999.0,  999.0,  999.0,  999.0,  999.0,  999.0,  999.0,  999.0,  999.0,  999.0,  999.0,  999.0,  999.0,  999.0
2005/08/25 06:40,  999.0,  999.0,  999.0,  999.0,  -18.6,  -20.8,  -19.2,  -18.4,  -19.0,  -17.4,  -17.3,  -17.6,  -17.7,  -17.4,  -17.2,  -17.3,  -16.4,  -16.2,  -16.7,  -15.5,  -13.2,  999.0,  999.0,  999.0,  999.0,  999.0,  999.0,  999.0,  -55.0,  -55.1,  -55.0,  -55.1,  -55.1,  -55.1,  -55.1,  -55.1,  -55.2,  -55.1,  -55.1,  -55.2,  -55.2,  -55.2,  -55.2,  -55.0,  -55.2,  -55.3,  -55.3,  -55.2,  -55.3,  -55.4,  -54.9,  -54.9,  -55.6,  999.0,  999.0,  999.0,  999.0,  999.0,  999.0,  999.0,  999.0,  999.0,  999.0
2005/08/25 06:50,  999.0,  999.0,  999.0,  999.0,  999.0,  999.0,  -19.9,  -18.9,  -18.6,  -17.5,  -17.3,  -17.1,  -16.8,  -16.9,  -16.7,  -16.8,  -16.3,  -16.4,  -16.3,  -15.9,  -13.1,  -11.1,   -9.9,  999.0,  999.0,  999.0,  999.0,  999.0,  999.0,  999.0,  999.0,  -55.1,  -55.2,  -55.1,  999.0,  -55.2,  -55.2,  -55.2,  -55.1,  -55.1,  -55.1,  -55.2,  -55.2,  -55.4,  999.0,  999.0,  999.0,  999.0,  999.0,  999.0,  999.0,  999.0,  999.0,  999.0,  999.0,  999.0,  999.0,  999.0,  999.0,  999.0,  999.0,  999.0,  999.0
2005/08/25 07:00,  999.0,  999.0,  -18.1,  999.0,  -20.7,  -21.0,  -19.9,  -18.5,  -18.3,  -18.4,  -18.2,  -17.5,  -18.2,  -17.3,  -16.9,  -16.4,  -16.6,  -16.8,  -17.3,  -16.8,  -13.7,  999.0,  999.0,  999.0,  999.0,  999.0,  999.0,  999.0,  999.0,  999.0,  -55.0,  -55.1,  -55.1,  -55.0,  -55.1,  -55.1,  -55.0,  -55.1,  -55.2,  -55.0,  -55.1,  -55.2,  -55.2,  -55.2,  -55.2,  -55.2,  -55.2,  -55.1,  -55.3,  -55.3,  -55.6,  -55.3,  -55.6,  999.0,  999.0,  999.0,  999.0,  999.0,  999.0,  999.0,  999.0,  999.0,  999.0
2005/08/25 07:10,  999.0,  -13.0,  -14.8,  -13.7,  999.0,  -20.4,  -20.5,  -19.4,  -18.4,  -18.5,  -18.1,  -17.0,  -16.7,  -18.1,  -17.2,  -17.2,  -18.4,  -18.2,  -17.2,  -16.1,  -14.2,  -14.9,  -15.0,  -18.7,  -14.0,  -13.2,   -9.5,  -14.6,  -19.2,  999.0,  -55.1,  -55.1,  -55.1,  -55.1,  -55.1,  -55.2,  -55.2,  -55.1,  -55.2,  -55.2,  -55.2,  -55.1,  -55.3,  -55.1,  -55.1,  -49.8,  -55.4,  -55.3,  -55.3,  -55.5,  -55.5,  -55.5,  -55.4,  -55.6,  999.0,  999.0,  999.0,  999.0,  999.0,  999.0,  999.0,  999.0,  999.0
2005/08/25 07:20,  999.0,  999.0,  999.0,  999.0,  999.0,  -21.2,  -20.1,  -19.8,  -18.5,  -18.7,  -17.4,  -17.6,  -16.1,  -16.4,  -16.3,  -15.7,  -15.5,  -16.5,  -16.7,  -15.9,  -13.6,  -12.4,  -12.5,  999.0,  999.0,  999.0,  999.0,  999.0,  999.0,  999.0,  999.0,  -55.1,  -55.0,  -55.1,  -55.1,  -55.1,  -55.1,  -55.1,  -55.1,  -55.1,  -55.1,  -55.2,  -55.2,  -55.1,  -55.2,  -55.3,  -55.3,  -55.1,  -55.3,  -55.5,  -55.2,  -55.3,  999.0,  999.0,  999.0,  999.0,  999.0,  999.0,  999.0,  999.0,  999.0,  999.0,  999.0
2005/08/25 07:30,  999.0,  999.0,  999.0,  999.0,  -20.5,  -21.5,  -20.3,  -19.7,  -18.4,  -18.7,  -18.3,  -18.0,  -17.9,  -18.4,  -17.5,  -16.2,  -17.0,  -17.2,  -15.9,  -15.0,  -11.9,  -11.0,  999.0,  999.0,  999.0,  999.0,  999.0,  999.0,  999.0,  999.0,  999.0,  -55.1,  -55.1,  -55.1,  -55.1,  -55.0,  -55.1,  -55.1,  -55.2,  -55.1,  -55.0,  -55.1,  -55.2,  -55.2,  -55.1,  -55.1,  -55.3,  -55.2,  -55.2,  -55.3,  -55.3,  -55.3,  999.0,  999.0,  999.0,  999.0,  999.0,  999.0,  999.0,  999.0,  999.0,  999.0,  999.0
2005/08/25 07:40,  999.0,  999.0,  999.0,  999.0,  999.0,  -20.1,  -19.7,  -19.3,  -18.8,  -18.8,  -17.9,  -17.5,  -18.5,  -18.8,  -18.1,  -16.3,  -16.2,  -15.9,  -15.5,  -14.2,  -13.0,  -10.8,  999.0,  999.0,  999.0,  999.0,  999.0,  999.0,  999.0,  -26.7,  -27.1,  -26.9,  -36.5,  -36.3,  -36.6,  999.0,  999.0,  999.0,  999.0,  999.0,  -55.2,  -55.1,  999.0,  999.0,  -55.2,  -55.3,  -55.2,  -55.3,  -55.3,  -55.2,  -55.2,  -55.3,  -55.5,  -36.9,  999.0,  999.0,  999.0,  999.0,  999.0,  999.0,  999.0,  999.0,  999.0
2005/08/25 07:50,  999.0,  999.0,  999.0,  999.0,  999.0,  -20.3,  -19.6,  -18.7,  -18.6,  -19.5,  -17.9,  -18.0,  -17.9,  -17.8,  -17.1,  -16.9,  -16.1,  -16.8,  -16.7,  -15.9,  -11.6,  -10.5,   -9.8,  999.0,  999.0,  999.0,  999.0,  999.0,  999.0,  -27.2,  -26.7,  -27.5,  -26.7,  -26.9,  -27.2,  999.0,  999.0,  999.0,  -55.1,  -55.1,  -55.1,  -55.2,  -55.1,  -55.0,  -55.3,  -55.2,  -55.3,  -55.3,  -55.4,  -55.3,  -55.2,  -55.4,  -55.0,  999.0,  999.0,  999.0,  999.0,  999.0,  999.0,  999.0,  999.0,  999.0,  999.0
2005/08/25 08:00,  999.0,  999.0,  999.0,  999.0,  999.0,  -20.3,  -20.1,  -19.2,  -19.3,  -18.5,  -18.2,  -17.1,  -18.1,  -17.5,  -16.8,  -17.2,  -16.8,  -17.4,  -16.5,  -16.0,  -15.1,  -12.4,  999.0,   -8.9,   -8.4,   -6.7,   -5.3,  999.0,  999.0,  999.0,  999.0,  999.0,  -46.1,  -31.7,  -32.0,  999.0,  -45.4,  -47.6,  -50.9,  -51.0,  -55.3,  999.0,  -55.3,  -50.2,  -32.8,  999.0,  999.0,  999.0,  -17.7,  999.0,  999.0,  999.0,  999.0,  999.0,  999.0,  999.0,  999.0,  999.0,  999.0,  999.0,  999.0,  999.0,  999.0
2005/08/25 08:10,  999.0,  999.0,  999.0,  999.0,  -16.1,  -18.2,  -20.8,  -20.1,  -19.3,  -19.8,  -19.1,  -19.5,  -18.8,  -18.4,  -17.9,  -17.3,  -17.4,  -17.0,  -16.7,  -16.0,  -13.9,   -9.7,  999.0,  999.0,   -7.1,   -5.0,   -4.2,   -3.5,  999.0,  999.0,  999.0,  999.0,  -55.1,  -50.8,  -49.0,  -55.1,  -55.1,  -55.2,  -55.1,  -55.1,  -55.2,  -55.2,  -55.2,  -55.1,  -55.4,  -55.2,  -55.2,  -55.3,  -55.2,  -55.4,  -55.4,  -55.4,  -55.1,  999.0,  999.0,  -56.0,  999.0,  999.0,  999.0,  999.0,  999.0,  999.0,  999.0
2005/08/25 08:20,  999.0,  999.0,  999.0,  999.0,  -19.9,  -21.0,  -21.0,  -21.1,  -19.4,  -17.4,  -17.8,  -17.8,  -17.9,  -17.3,  -17.3,  -16.8,  -16.3,  -15.8,  -15.5,  -14.2,  -14.2,  -12.0,  999.0,   -8.1,   -5.7,  999.0,   -4.1,  999.0,  999.0,  999.0,  999.0,  999.0,  999.0,  -55.2,  -55.1,  -55.2,  -55.1,  -55.1,  -55.2,  -55.1,  -55.2,  -55.2,  -55.2,  -55.2,  -55.1,  -52.1,  999.0,  -55.2,  -55.3,  -55.3,  999.0,  999.0,  999.0,  999.0,  999.0,  999.0,  999.0,  999.0,  999.0,  999.0,  999.0,  999.0,  999.0
2005/08/25 08:30,  999.0,  999.0,  999.0,  999.0,  -17.3,  -16.4,  -13.5,  -21.4,  -21.9,  -20.3,  -19.4,  -18.9,  -17.7,  -17.3,  -16.9,  -13.2,  -13.4,  -13.3,  -12.7,  -12.2,  -14.8,  -13.2,  -12.4,  -11.0,  -11.0,  999.0,  999.0,  999.0,  -15.5,  999.0,  999.0,  -19.5,  -19.2,  -19.7,  -18.7,  -11.9,  999.0,  -13.0,  -13.7,   -2.3,  999.0,  999.0,  999.0,  999.0,  999.0,  999.0,  999.0,  999.0,  999.0,  999.0,  999.0,  999.0,  999.0,  999.0,  999.0,  999.0,  999.0,  999.0,  999.0,  999.0,  999.0,  999.0,  999.0
2005/08/25 08:40,  999.0,  -12.7,  -15.2,  -11.2,  -16.9,  -18.3,  -21.1,  -14.3,  -19.4,  -14.8,  -13.8,   -7.4,   -9.7,  -11.3,  -18.0,  -17.4,  -16.2,  -14.5,  -15.0,  -14.7,  -14.4,  -13.8,  -11.8,  -11.1,   -9.5,  -10.9,   -7.4,   -3.6,  999.0,  999.0,  999.0,  999.0,  999.0,  999.0,  999.0,  -27.4,  -27.8,  -14.5,  -27.5,  -27.6,  999.0,  999.0,  -13.9,  -13.8,  -13.9,  -13.1,  -13.6,  999.0,  999.0,  999.0,  -27.9,  999.0,  -27.7,  999.0,  999.0,  999.0,  999.0,  999.0,  999.0,  999.0,  999.0,  999.0,  999.0
2005/08/25 08:50,  999.0,  -12.5,  -12.3,  -16.4,  -20.4,  -20.6,  -21.5,  -19.1,  -18.2,  -24.4,  -19.0,  -18.1,  -15.0,  -15.1,  -17.7,  -17.3,  -17.3,  -17.8,  -16.9,  -15.8,  -14.5,  -13.6,  -11.1,  -18.0,  -10.1,   -9.5,   -6.3,   -3.6,  999.0,  999.0,  999.0,  -19.5,  999.0,  -40.6,  999.0,  -40.1,  -27.6,  -27.7,  -28.5,  -29.3,  -47.2,  -33.3,  -55.1,  -49.4,  -47.2,  -42.5,  -39.7,  -42.1,  999.0,  999.0,  999.0,  999.0,  999.0,  999.0,  999.0,  999.0,  999.0,  999.0,  999.0,  999.0,  999.0,  999.0,  999.0
2005/08/25 09:00,  999.0,  -13.8,  -13.7,  -16.4,  -18.3,  -19.3,  -18.9,  -18.0,  -17.8,  -20.0,  -19.3,  -19.9,  -20.4,  999.0,  -15.4,  -19.1,  -19.2,  -19.0,  -19.4,  -18.7,  -17.5,  -15.0,  -10.8,  999.0,  999.0,  999.0,   -3.8,  999.0,  -14.0,   -0.4,   -1.3,  -22.6,  -29.4,  -36.9,  999.0,  999.0,  -48.6,  -41.4,  -26.2,  -20.1,  999.0,  999.0,  999.0,  999.0,  -32.6,  -40.8,  -10.7,  999.0,  999.0,  999.0,  999.0,  999.0,  999.0,  999.0,  999.0,  999.0,  999.0,  999.0,  999.0,  999.0,  999.0,  999.0,  999.0
2005/08/25 09:10,  999.0,  -10.3,  -11.6,  -15.8,  -19.0,  999.0,  -21.2,  -22.4,  -17.9,  -16.8,  -17.2,  -18.1,  -21.1,  -15.4,  -18.2,  -15.8,  -15.7,  -17.7,  -17.7,  -17.5,  999.0,  999.0,  999.0,  999.0,  999.0,   -3.0,  999.0,  999.0,  999.0,  999.0,  999.0,  -23.2,  -28.7,  -34.2,  -47.7,  -29.1,  -32.9,  -32.0,  -33.3,  -23.9,  -34.6,  -30.3,  999.0,  -27.7,  -18.5,  -23.7,  -23.6,  -23.2,  999.0,  -28.0,  -36.7,  999.0,  999.0,  -27.6,  999.0,  999.0,  999.0,  999.0,  999.0,  999.0,  999.0,  999.0,  999.0
2005/08/25 09:20,  999.0,  -13.3,  -13.8,  -17.8,  -21.2,  -21.4,  -22.1,  -22.4,  -21.8,  -21.2,  -19.6,  -19.9,  -19.7,  -18.3,  -14.7,  -11.0,  -14.6,  -17.3,   -9.1,  -18.9,  999.0,  999.0,   -3.1,   -6.6,   -5.7,   -0.5,    1.9,    2.0,  999.0,  999.0,    1.2,    1.4,    1.6,   -8.9,   -7.8,  -20.2,  999.0,  -16.8,  -18.5,  -15.7,  -16.0,  -12.3,  -11.9,  -18.6,  999.0,  999.0,  999.0,  999.0,  999.0,  999.0,  999.0,  999.0,  999.0,  999.0,  999.0,  999.0,  999.0,  999.0,  999.0,  999.0,  999.0,  999.0,  999.0
2005/08/25 09:30,  999.0,  -13.6,  -12.6,  -14.2,  -21.8,  -21.6,  -22.0,  -20.4,  -20.9,  -21.1,  -22.7,  -21.6,  -22.0,  -21.7,  -21.3,  -21.1,  -20.4,  -22.3,  -25.3,  -19.4,  -24.0,  -18.5,  -20.9,  -17.5,  -14.0,  999.0,  999.0,  999.0,  999.0,    3.1,   -5.3,   -4.5,   -6.8,   -2.4,   -5.9,   -6.5,   -6.4,   -1.2,   -9.0,   -9.8,   -7.9,   -8.1,   -4.9,   -6.1,  999.0,  999.0,  999.0,  999.0,  999.0,  999.0,  999.0,  999.0,  999.0,  999.0,  999.0,  999.0,  999.0,  999.0,  999.0,  999.0,  999.0,  999.0,  999.0
2005/08/25 09:40,  999.0,  999.0,  999.0,  999.0,  -21.5,  -23.3,  -24.9,  -24.1,  -23.5,  -22.6,  -22.6,  -23.2,  -22.4,  -21.4,  -20.7,  -20.5,  -19.1,  -18.9,  999.0,  -27.7,  -27.7,  -34.6,  -32.9,  -29.6,  -26.8,  -36.0,  -33.9,  -34.4,  -37.3,  999.0,  -34.2,  -30.2,  -31.9,  -31.7,  -32.0,  -32.3,  -32.3,  -32.2,  -32.1,  -30.8,  -31.2,  -28.8,  -28.1,  -27.8,  -28.1,  -27.9,  -29.2,  -28.6,  999.0,  -28.4,  999.0,  999.0,  999.0,  999.0,  999.0,  999.0,  999.0,  999.0,  999.0,  999.0,  999.0,  999.0,  999.0
2005/08/25 09:50,  999.0,  999.0,  999.0,  999.0,  -22.5,  -23.2,  -23.7,  -23.3,  -22.4,  -22.9,  -21.8,  -22.0,  -21.1,  -20.9,  -20.0,  -19.7,  -20.6,  -20.5,  999.0,  999.0,  -21.0,  -29.2,  -27.9,  -25.0,  -24.2,  -25.4,  -25.9,  -26.0,  -29.3,  -26.4,  -26.8,  -26.8,  -25.5,  -33.8,  -28.8,  -27.6,  -29.6,  -28.9,  -28.5,  -23.8,  -30.7,  -25.8,  999.0,  999.0,  999.0,  -25.9,  -25.7,  -28.7,  999.0,  999.0,  999.0,  999.0,  999.0,  999.0,  999.0,  999.0,  999.0,  999.0,  999.0,  999.0,  999.0,  999.0,  999.0
2005/08/25 10:00,  999.0,  999.0,  999.0,  999.0,  -22.4,  -24.3,  -24.8,  -24.5,  -24.1,  -23.7,  -23.4,  -23.9,  -23.0,  -22.2,  -21.8,  -20.7,  -20.5,  -20.4,  -19.8,  -19.6,  -19.6,  -19.2,  -19.4,  -14.9,   -8.3,   -6.1,   -8.3,  -13.8,  -14.3,   -7.6,   -5.6,   -5.8,   -7.1,   -4.0,   -3.2,   -3.7,   -3.1,   -3.2,   -4.2,    0.3,   -1.8,   -4.7,   -6.6,   -8.7,  999.0,   -8.7,   -5.6,  999.0,  999.0,  999.0,  999.0,  999.0,  999.0,  999.0,  999.0,  999.0,  999.0,  999.0,  999.0,  999.0,  999.0,  999.0,  999.0
2005/08/25 10:10,  999.0,  999.0,  999.0,  999.0,  -20.5,  -22.5,  -22.8,  -22.8,  -23.1,  -23.2,  -23.8,  -22.6,  -23.2,  999.0,  -22.2,  -21.3,  -21.3,  -21.9,  -21.1,  -19.7,  -19.2,  -19.3,  -18.2,  999.0,  999.0,  999.0,  999.0,  999.0,  999.0,   -0.6,    0.2,   -0.6,   -1.1,  999.0,  999.0,  -23.6,  999.0,  999.0,  999.0,  999.0,  999.0,  999.0,  999.0,  999.0,  -27.4,  -27.6,  -18.6,  999.0,  999.0,  -27.7,  999.0,  999.0,  999.0,  999.0,  999.0,  999.0,  999.0,  999.0,  999.0,  999.0,  999.0,  999.0,  999.0
2005/08/25 10:20,  999.0,  -11.0,  -12.2,  -13.3,  -17.6,  -20.7,  -22.0,  -21.9,  -21.9,  -21.6,  -21.6,  -21.5,  -21.3,  -21.5,  -21.0,  -21.2,  -20.2,  -18.8,  -18.0,  -19.3,  -16.9,  -13.7,  -12.2,  -11.0,   -9.4,   -5.0,  999.0,  999.0,  -24.5,  -14.1,  -14.1,  -10.6,  -14.1,  -19.8,  -19.8,  999.0,  999.0,  999.0,  -22.4,  -27.6,  999.0,  999.0,  999.0,  999.0,   -0.0,  -10.1,   -0.1,    0.0,    0.2,  999.0,  999.0,  999.0,    0.0,  999.0,  999.0,  999.0,  999.0,  999.0,  999.0,  999.0,  999.0,  999.0,  999.0
2005/08/25 10:30,  999.0,  -10.4,  -11.9,  -12.5,  -17.5,  -19.2,  -19.7,  -19.9,  -20.6,  -20.9,  -21.5,  -20.5,  -20.1,  -19.8,  -18.5,  -18.6,  -15.1,  -15.7,  -14.4,  -14.3,  -10.1,  -10.8,   -9.8,  -11.2,   -9.2,  999.0,  -28.5,  -22.5,  -27.8,  -19.5,  -19.5,  -24.6,  999.0,  -33.9,  -30.2,  -29.8,  -24.2,  -25.6,  -34.5,  -36.9,  -36.8,  -34.8,  -34.3,  -36.3,  999.0,  999.0,  999.0,  999.0,  999.0,  999.0,  999.0,  999.0,  999.0,  999.0,  999.0,  999.0,  999.0,  999.0,  999.0,  999.0,  999.0,  999.0,  999.0
2005/08/25 10:40,  999.0,   -8.3,  -12.5,  -13.9,  -17.3,  -19.9,  -20.5,  -20.3,  -20.7,  -20.6,  -20.0,  -19.4,  -19.7,  -19.8,  -19.7,  -19.5,  -17.0,  -17.0,  -14.5,  -11.6,  999.0,  999.0,  999.0,  999.0,   -8.6,  999.0,  999.0,  999.0,  999.0,  999.0,  -14.1,  999.0,  999.0,  -20.2,  -21.6,  -16.8,  -17.9,  -19.0,  -18.4,  -19.0,  -20.0,  -18.0,  -15.8,  -25.3,  999.0,  999.0,  999.0,  999.0,  999.0,  999.0,  999.0,  999.0,  999.0,  999.0,  999.0,  999.0,  999.0,  999.0,  999.0,  999.0,  999.0,  999.0,  999.0
2005/08/25 10:50,  999.0,  999.0,  999.0,   -7.9,  -17.0,  -19.4,  -20.6,  -19.6,  -19.3,  -19.8,  -19.2,  -19.6,  -19.6,  -19.8,  -19.0,  -18.8,  -18.2,  -17.2,  999.0,  999.0,  999.0,  999.0,  999.0,   -8.0,   -7.3,   -5.6,   -4.0,   -5.0,   -4.7,   -4.2,   -5.5,   -4.3,   -6.1,   -6.9,   -7.1,   -7.6,   -8.1,   -8.3,   -8.4,   -9.1,   -9.7,   -9.6,  -11.1,  -12.0,  -11.8,  999.0,  999.0,  999.0,   -7.2,   -6.5,  999.0,  999.0,  999.0,  999.0,  999.0,  999.0,  999.0,  999.0,  999.0,  999.0,  999.0,  999.0,  999.0
2005/08/25 11:00,  999.0,  999.0,  999.0,  999.0,  -18.1,  -17.5,  -18.4,  -19.2,  -18.5,  -19.2,  -19.3,  -19.5,  -18.6,  -18.0,  -17.5,  -16.9,  -16.3,  -15.5,  -15.0,  999.0,  999.0,  999.0,  999.0,   -8.1,  -11.4,   -4.4,   -8.5,   -1.9,   -8.3,   -8.6,  -11.5,  -11.7,  -10.1,  -12.8,  -12.3,  -12.9,  -13.5,  -13.6,  -13.5,  -13.6,  -13.3,  -12.2,   -6.3,  999.0,   -6.1,  999.0,  999.0,  999.0,   -3.6,   -4.3,   -3.6,  999.0,  999.0,  999.0,  999.0,  999.0,  999.0,  999.0,  999.0,  999.0,  999.0,  999.0,  999.0
2005/08/25 11:10,  999.0,   -6.2,  999.0,  999.0,  999.0,  -18.2,  -19.9,  -19.0,  -18.8,  -18.7,  -19.3,  -18.8,  -18.3,  -18.2,  -17.7,  -16.5,  -14.7,  -14.3,  -14.0,  -13.4,  -12.1,  -10.9,   -9.8,   -7.5,   -7.1,  999.0,  -28.6,  -26.8,  -28.1,  -25.5,  -15.7,  -23.7,  -25.2,  -16.6,  -15.2,  999.0,  999.0,  999.0,  999.0,  999.0,   -5.6,   -9.0,   -6.6,   -5.4,  999.0,  999.0,  999.0,  999.0,  999.0,  999.0,   -4.9,   -4.5,   -3.2,  999.0,  999.0,  999.0,  999.0,  999.0,  999.0,  999.0,  999.0,  999.0,  999.0
2005/08/25 11:20,  999.0,  999.0,  -14.9,  999.0,  -15.5,  -19.0,  -20.8,  -19.9,  -18.5,  -18.0,  -17.9,  -16.9,  -17.1,  -16.5,  -16.0,  -15.9,  -15.7,  -15.0,  -13.8,  -12.7,  -10.6,   -9.8,  999.0,   -7.7,   -5.6,   -5.2,   -3.9,  999.0,   -3.0,   -7.3,  999.0,  999.0,  999.0,  999.0,  999.0,  999.0,  999.0,  999.0,  999.0,   -5.0,   -5.7,  999.0,   -4.9,   -5.2,   -5.8,   -7.0,  999.0,  999.0,  999.0,  999.0,   -5.2,   -4.4,   -3.0,   -3.2,  999.0,  999.0,  999.0,  999.0,  999.0,  999.0,  999.0,  999.0,  999.0
2005/08/25 11:30,  999.0,   -9.2,  -10.9,  -10.6,  -14.8,  -17.6,  -17.9,  -18.8,  -19.6,  -17.9,  -17.9,  -17.2,  -16.6,  -15.6,  -15.1,  -14.9,  -15.0,  -14.2,  -14.0,  -13.0,  -12.1,  999.0,  999.0,   -8.2,   -8.0,   -6.0,   -6.3,  999.0,  999.0,  999.0,  999.0,  999.0,  999.0,  999.0,  999.0,  999.0,  999.0,  -37.0,  999.0,  -46.0,  -39.1,  -46.8,  -43.2,  -43.6,  -26.9,  -55.4,  -55.3,  999.0,  -55.2,  -55.5,  999.0,   -3.0,  999.0,  999.0,  999.0,  999.0,  999.0,  999.0,  999.0,  999.0,  999.0,  999.0,  999.0
2005/08/25 11:40,  999.0,   -9.1,  -10.3,  -11.1,  -15.1,  -17.2,  -18.5,  -19.4,  -19.4,  -20.3,  -19.5,  -18.7,  -18.7,  -16.5,  -15.9,  -14.2,  -13.3,  -13.0,  -12.6,  -12.7,  999.0,  -10.4,   -8.3,  999.0,  999.0,  999.0,  999.0,  999.0,  999.0,  999.0,  999.0,  999.0,  999.0,  -46.1,  -55.2,  -55.2,  -55.1,  -55.1,  -55.0,  -55.2,  -55.1,  -50.5,  -46.2,  999.0,  -55.1,  999.0,  999.0,  999.0,  999.0,  999.0,  999.0,  999.0,  999.0,  999.0,  999.0,  999.0,  999.0,  999.0,  999.0,  999.0,  999.0,  999.0,  999.0
2005/08/25 11:50,  999.0,  -10.4,  -11.8,  -12.6,  -16.8,  -18.6,  -19.3,  -20.0,  -20.1,  -19.5,  -18.6,  -17.7,  -16.2,  -15.0,  -15.2,  -14.4,  -13.3,  -13.0,  -13.0,  -13.6,  -10.4,  999.0,  999.0,  999.0,  999.0,  999.0,  999.0,  999.0,  999.0,  999.0,  999.0,  999.0,  -55.1,  -55.1,  -55.2,  -55.1,  -55.1,  -55.1,  -55.1,  -55.0,  -55.2,  -55.3,  -55.3,  -55.1,  -55.3,  -55.5,  -55.5,  999.0,  999.0,  999.0,  999.0,  999.0,  999.0,  999.0,  999.0,  999.0,  999.0,  999.0,  999.0,  999.0,  999.0,  999.0,  999.0
2005/08/25 12:00,  999.0,  -11.2,  -12.2,  -13.7,  -16.7,  -18.4,  -19.2,  -18.6,  -17.9,  -19.1,  -18.8,  -17.5,  -18.3,  -16.8,  -14.9,  -13.9,  -12.6,  -12.3,  -12.7,  999.0,  999.0,  999.0,  999.0,  999.0,  999.0,  999.0,  999.0,  999.0,  -55.0,  -55.0,  -55.0,  -55.1,  -55.1,  -55.1,  -55.1,  -55.1,  -55.1,  -55.1,  -55.2,  -55.1,  -55.2,  -55.1,  -55.2,  -55.1,  -54.7,  -55.0,  -55.5,  999.0,  999.0,  999.0,  999.0,  999.0,  999.0,  999.0,  999.0,  999.0,  999.0,  999.0,  999.0,  999.0,  999.0,  999.0,  999.0
2005/08/25 12:10,  999.0,  -10.3,  -12.2,  -13.3,  -15.7,  -17.2,  -17.4,  -17.0,  -17.0,  -18.2,  -18.7,  -18.2,  -18.5,  -17.0,  -16.5,  -15.5,  -13.0,  -11.5,  -10.5,  -11.1,  -11.2,  999.0,   -9.2,  999.0,  999.0,  999.0,  999.0,  999.0,  999.0,  999.0,  999.0,  999.0,  999.0,  999.0,  999.0,  999.0,  999.0,  999.0,  999.0,  999.0,  999.0,  999.0,  999.0,  999.0,  999.0,  999.0,  999.0,  999.0,  999.0,  999.0,  999.0,  999.0,  999.0,  999.0,  999.0,  999.0,  999.0,  999.0,  999.0,  999.0,  999.0,  999.0,  999.0
2005/08/25 12:20,  999.0,  -11.4,  -12.6,  -13.5,  -15.5,  -17.6,  -18.0,  -18.8,  -18.7,  -18.7,  -18.9,  -19.1,  -18.7,  -18.2,  -17.9,  -16.4,  -15.8,  -14.8,  -13.2,  -11.7,  -11.6,  999.0,   -9.6,   -7.9,   -6.9,   -6.6,  999.0,  999.0,  999.0,  999.0,  999.0,  999.0,  999.0,  999.0,  999.0,   -7.6,  999.0,  999.0,  999.0,   -6.1,   -3.7,   -4.4,   -4.5,  999.0,  999.0,  999.0,  999.0,  999.0,   -7.7,   -4.6,  999.0,  999.0,  999.0,  999.0,  999.0,  999.0,  999.0,  999.0,  999.0,  999.0,  999.0,  999.0,  999.0
2005/08/25 12:30,  999.0,  -11.7,  -13.0,  -14.1,  -15.0,  -17.0,  -18.1,  -18.2,  -18.0,  -17.8,  -18.4,  -18.5,  -17.9,  -18.7,  -17.6,  -16.5,  -15.0,  -14.4,  -13.0,  -11.4,  -11.3,  999.0,  999.0,   -8.1,   -7.4,  -10.1,  999.0,  999.0,  999.0,  999.0,  -27.5,  -12.8,  999.0,  999.0,  999.0,    7.8,   -8.8,  999.0,   -8.7,   -8.6,   -2.0,  999.0,  999.0,  999.0,  999.0,  999.0,  999.0,  999.0,    8.6,  999.0,  999.0,  999.0,  999.0,  999.0,  999.0,  999.0,  999.0,  999.0,  999.0,  999.0,  999.0,  999.0,  999.0
2005/08/25 12:40,  999.0,  -10.8,  -12.4,  -12.9,  -15.3,  -16.9,  -17.8,  -17.8,  -18.0,  -19.1,  -19.7,  -20.1,  -19.7,  -18.5,  -17.0,  -15.4,  -15.0,  999.0,  999.0,  -15.3,  -15.7,  -19.4,  -17.7,  -17.5,  -26.6,  -27.8,  -27.8,  -27.6,  -27.1,  -26.2,  999.0,  999.0,  999.0,  -11.3,   -6.0,  999.0,  999.0,  999.0,  999.0,  999.0,  999.0,  999.0,    2.0,   -2.2,   -2.9,  999.0,  999.0,  999.0,  999.0,  999.0,  999.0,  999.0,  999.0,  999.0,  999.0,  999.0,  999.0,  999.0,  999.0,  999.0,  999.0,  999.0,  999.0
2005/08/25 12:50,  999.0,  -12.7,  -13.7,  -14.4,  -17.7,  -19.7,  -20.3,  -20.0,  -19.9,  -20.7,  -18.9,  999.0,  -23.0,  -21.3,  -20.8,  -15.3,  999.0,  999.0,  999.0,  999.0,  -14.1,  999.0,  999.0,  999.0,  999.0,   -8.1,  999.0,  999.0,  999.0,  999.0,  999.0,  999.0,  999.0,  999.0,   -3.7,  999.0,  999.0,  999.0,   -3.5,   -3.4,   -5.3,   -5.2,   -6.4,   -6.4,  999.0,  999.0,   -8.6,   -6.3,   -3.0,  999.0,  999.0,  999.0,  999.0,  999.0,  999.0,  999.0,  999.0,  999.0,  999.0,  999.0,  999.0,  999.0,  999.0
2005/08/25 13:00,  999.0,  -13.3,  -12.8,  -13.5,  -11.9,  -14.7,  -15.6,  -19.5,  -19.0,  -20.8,  -20.0,  -19.5,  -19.3,  -19.6,  -19.5,  -18.8,  -18.3,  -16.9,  -13.4,   -6.5,   -3.4,   -6.0,   -4.6,   -7.9,   -7.2,   -9.5,   -7.8,   -7.6,   -5.3,   -4.7,  999.0,  999.0,  999.0,  999.0,   -1.9,   -1.9,   -3.5,   -3.3,   -5.7,   -4.8,   -7.6,   -7.1,   -9.3,  999.0,  999.0,  -10.8,  999.0,   -6.6,  999.0,  999.0,  999.0,  999.0,  999.0,  999.0,  999.0,  999.0,  999.0,  999.0,  999.0,  999.0,  999.0,  999.0,  999.0
2005/08/25 13:10,  999.0,   -9.1,  -13.4,  -14.0,  -13.7,  -12.7,  999.0,  -21.6,  -15.8,  -18.4,  -20.2,  -19.6,  -19.1,  -16.9,  -16.2,  -16.3,  999.0,   -6.4,  999.0,  -14.3,  -10.2,   -7.3,   -6.4,   -6.1,   -6.6,   -6.6,   -6.1,   -4.7,   -1.7,    1.3,  999.0,    2.9,  999.0,    1.7,    0.6,  999.0,  999.0,   -0.7,  999.0,  999.0,  999.0,  999.0,  999.0,  999.0,  999.0,  999.0,  999.0,  999.0,  999.0,  999.0,  999.0,  999.0,  999.0,  999.0,  999.0,  999.0,  999.0,  999.0,  999.0,  999.0,  999.0,  999.0,  999.0
2005/08/25 13:20,  999.0,   -8.1,  -10.7,  -13.1,  -17.4,  -18.7,  -19.7,  -20.1,  -20.5,  -21.0,  999.0,  999.0,  999.0,  -16.4,  999.0,  -14.5,  -15.1,  999.0,  999.0,  999.0,  999.0,  999.0,  999.0,  999.0,  -28.6,  -15.0,  -16.8,  -17.8,  -11.8,  999.0,   -8.2,  999.0,  -24.4,  -22.9,  -23.6,  999.0,  999.0,  999.0,  999.0,  999.0,  999.0,  999.0,  999.0,  999.0,  999.0,  999.0,  999.0,  999.0,  999.0,  999.0,  999.0,  999.0,  999.0,  999.0,  999.0,  999.0,  999.0,  999.0,  999.0,  999.0,  999.0,  999.0,  999.0
2005/08/25 13:30,  999.0,   -9.0,  -10.7,  -13.9,  -16.4,  -17.1,  -18.0,  -18.7,  -19.4,  -19.9,  -20.5,  -20.4,  -19.4,  999.0,  999.0,  999.0,  -12.4,  -12.0,  -11.6,  -10.5,   -9.6,   -9.1,   -8.3,   -6.8,   -4.6,   -4.3,  999.0,  999.0,  999.0,  999.0,  999.0,  999.0,  999.0,  -27.1,  -28.6,  -28.9,  -29.0,  999.0,  999.0,  999.0,  999.0,  999.0,  999.0,  999.0,  999.0,   -9.9,  999.0,  999.0,  999.0,  999.0,  999.0,  999.0,  999.0,  999.0,  999.0,  999.0,  999.0,  999.0,  999.0,  999.0,  999.0,  999.0,  999.0
2005/08/25 13:40,  999.0,  999.0,  999.0,  999.0,  -16.0,  -16.2,  -18.2,  -18.7,  -19.7,  -20.7,  -20.6,  -20.8,  -18.8,  -17.5,  -15.8,  -13.0,  -11.9,  -11.1,  -10.3,   -9.8,   -9.7,   -9.9,   -8.6,   -7.5,   -6.7,   -3.7,  999.0,  999.0,  999.0,  999.0,  999.0,  -34.0,  999.0,  -34.8,  -35.6,  -34.6,  -38.2,  -35.4,  -42.6,  999.0,  999.0,  999.0,  999.0,  999.0,  999.0,  999.0,  999.0,  999.0,  -55.4,  999.0,  -55.4,  999.0,  999.0,  999.0,  999.0,  999.0,  999.0,  999.0,  999.0,  999.0,  999.0,  999.0,  999.0
2005/08/25 13:50,  999.0,   -7.9,   -9.7,  -11.8,  -14.5,  -16.0,  -16.8,  -17.6,  -18.1,  -18.1,  -19.1,  -20.0,  -18.6,  -17.2,  -16.0,  -14.8,  -13.7,  -12.9,  -11.9,  -11.7,  -11.0,  -10.1,  -10.2,  -10.7,  999.0,  999.0,  999.0,  999.0,  999.0,  999.0,  999.0,  -55.1,  -55.2,  -51.8,  -50.8,  999.0,  -55.2,  999.0,  999.0,  999.0,  -30.3,  999.0,  999.0,  999.0,  999.0,  -31.0,  999.0,  999.0,  999.0,  999.0,  999.0,  999.0,  999.0,  999.0,  999.0,  999.0,  999.0,  999.0,  999.0,  999.0,  999.0,  999.0,  999.0
2005/08/25 14:00,  999.0,   -6.9,   -9.8,  -12.7,  -13.7,  -15.9,  -17.0,  -17.8,  -18.2,  -18.7,  -19.4,  -19.6,  -18.6,  999.0,  -15.3,  -13.6,  -13.8,  -13.5,  -12.5,  -12.5,  -11.1,  -11.1,   -8.6,   -8.8,   -7.5,  -11.3,  999.0,  999.0,  999.0,  999.0,  999.0,    2.1,    0.4,   -1.1,  999.0,  999.0,   -8.5,  999.0,  -16.2,  999.0,  -28.5,  -29.7,  999.0,  999.0,  999.0,  -30.0,  999.0,  -14.7,  999.0,  999.0,  999.0,  999.0,  999.0,  999.0,  999.0,  999.0,  999.0,  999.0,  999.0,  999.0,  999.0,  999.0,  999.0
2005/08/25 14:10,  999.0,  999.0,  -12.1,  -10.8,  -12.7,  -14.5,  -15.2,  -17.5,  -19.0,  -19.4,  -19.7,  -19.0,  -18.3,  -15.3,  -15.3,  -12.9,  -12.5,  -12.0,  -11.7,  -11.0,  999.0,  999.0,  999.0,  999.0,   -7.5,   -6.0,   -4.0,  999.0,   -3.0,   -0.8,   -0.8,   -0.3,   -0.7,    0.9,   -1.9,   -2.6,   -6.3,  999.0,  -22.3,  999.0,  -16.8,  -16.6,  999.0,  999.0,  999.0,  -11.0,  999.0,  999.0,  999.0,  999.0,  999.0,  999.0,  999.0,  999.0,  999.0,  999.0,  999.0,  999.0,  999.0,  999.0,  999.0,  999.0,  999.0
2005/08/25 14:20,  999.0,  999.0,   -9.1,   -7.9,  -12.0,  -15.2,  -15.8,  -17.3,  999.0,  999.0,  -19.6,  -19.4,  -18.6,  -15.5,  -12.9,  -12.1,  -12.2,  -12.0,  -11.1,  -11.4,  999.0,  999.0,  999.0,  999.0,  999.0,  999.0,   -0.5,   -3.3,   -2.4,   -2.0,   -0.2,    0.0,   -0.6,   -1.5,   -1.8,   -2.8,   -3.5,   -4.0,  999.0,   -6.6,  999.0,  999.0,  999.0,  999.0,  999.0,  999.0,  999.0,  999.0,  999.0,  999.0,  999.0,  999.0,  999.0,  999.0,  999.0,  999.0,  999.0,  999.0,  999.0,  999.0,  999.0,  999.0,  999.0
2005/08/25 14:30,  999.0,   -5.1,   -9.5,  -11.7,  -13.3,  -15.0,  -16.9,  -18.4,  -19.0,  -19.2,  -18.8,  -19.2,  -18.3,  -16.4,  -13.7,  -11.7,  -11.0,  -10.7,  -11.1,   -9.0,   -3.5,  999.0,   -8.9,   -5.3,   -1.5,  999.0,   -0.1,   -0.1,   -0.6,   -0.6,   -0.0,    0.8,    0.8,  999.0,  999.0,  999.0,  999.0,  999.0,  999.0,  999.0,  999.0,  999.0,  999.0,  999.0,  999.0,   -6.0,  999.0,  999.0,  999.0,  999.0,  999.0,  999.0,  999.0,  999.0,  999.0,  999.0,  999.0,  999.0,  999.0,  999.0,  999.0,  999.0,  999.0
2005/08/25 14:40,  999.0,   -7.1,  999.0,   -7.9,  -13.9,  -15.1,  -15.2,  -17.8,  -18.8,  -18.6,  -18.8,  -18.5,  -17.4,  -16.7,  -14.7,  -12.7,  -11.9,  -10.5,  -10.3,   -9.6,   -9.4,  -10.9,   -9.8,   -8.5,   -4.2,   -1.8,   -0.8,    2.8,    1.4,  999.0,    2.3,    0.5,   -0.5,   -1.9,  999.0,  999.0,  999.0,  999.0,  999.0,  999.0,  999.0,  999.0,  999.0,  999.0,  999.0,  999.0,   -3.3,   -2.3,  999.0,  999.0,  999.0,  999.0,  999.0,  999.0,  999.0,  999.0,  999.0,  999.0,  999.0,  999.0,  999.0,  999.0,  999.0
2005/08/25 14:50,  999.0,  999.0,  999.0,   -9.1,  -10.7,  -13.0,  -14.4,  -16.0,  -17.3,  -18.5,  -18.8,  -17.8,  -16.5,  -14.9,  -14.5,  -12.5,  -11.2,  -10.1,   -9.4,   -8.5,   -7.0,   -7.4,   -6.5,   -5.2,   -3.3,   -1.4,   -0.1,    0.5,  999.0,  999.0,    0.5,   -0.3,   -1.2,   -3.0,  999.0,  999.0,  999.0,  999.0,  999.0,  999.0,  999.0,  999.0,  999.0,  -27.6,  -55.4,  -29.4,  999.0,  -36.9,  -55.3,  -55.3,  -55.0,  -55.1,  999.0,  999.0,  999.0,  999.0,  999.0,  999.0,  999.0,  999.0,  999.0,  999.0,  999.0
2005/08/25 15:00,  999.0,   -6.1,   -6.0,   -5.7,   -8.6,  -11.3,  -13.1,  -14.4,  -16.9,  -18.1,  -18.4,  -17.7,  -16.6,  -15.0,  999.0,  -13.3,  -12.5,  -11.2,   -9.9,   -8.2,   -7.4,   -7.1,   -9.1,   -6.7,   -5.5,  999.0,  999.0,  999.0,  999.0,  999.0,  999.0,  -40.9,  999.0,  999.0,  999.0,  -46.2,  -46.7,  999.0,  999.0,  999.0,  999.0,  -55.3,  -55.5,  -55.2,  999.0,  999.0,  999.0,  999.0,  999.0,  999.0,  999.0,  999.0,  999.0,  999.0,  999.0,  999.0,  999.0,  999.0,  999.0,  999.0,  999.0,  999.0,  999.0
2005/08/25 15:10,  999.0,   -6.2,   -6.0,   -8.3,  -10.4,  -12.0,  -14.1,  -15.7,  -16.7,  -17.9,  -18.6,  -18.0,  -17.0,  -14.9,  -14.0,  -13.1,  -11.6,  -10.7,   -8.8,   -8.3,   -6.8,   -6.0,   -7.5,   -5.9,  999.0,   -1.9,  999.0,  999.0,  999.0,  999.0,  999.0,  999.0,  -26.3,  -27.1,  999.0,  999.0,  999.0,  999.0,  999.0,  999.0,  999.0,  999.0,  999.0,  999.0,  999.0,  -29.2,  999.0,  999.0,  999.0,  999.0,  999.0,  999.0,  999.0,  999.0,  999.0,  999.0,  999.0,  999.0,  999.0,  999.0,  999.0,  999.0,  999.0
2005/08/25 15:20,  999.0,   -6.1,   -5.6,   -6.9,   -7.5,   -9.0,  -11.2,  -13.1,  -14.5,  -15.8,  -17.1,  -16.8,  -16.9,  -15.1,  -14.1,  -13.6,  -12.0,  -10.8,   -9.0,  999.0,  999.0,  999.0,  999.0,  999.0,  999.0,  999.0,  999.0,  999.0,  999.0,  999.0,  999.0,  999.0,  -26.6,  -27.5,  999.0,  999.0,  999.0,  999.0,  999.0,  999.0,  999.0,  999.0,  999.0,  999.0,  999.0,  -28.3,  -27.2,  -27.3,  999.0,  999.0,  999.0,  999.0,  999.0,  999.0,  999.0,  999.0,  999.0,  999.0,  999.0,  999.0,  999.0,  999.0,  999.0
2005/08/25 15:30,  999.0,  999.0,   -3.9,   -4.1,   -4.4,   -8.0,   -9.5,  -12.0,  -12.9,  -14.1,  -15.4,  -15.7,  -15.6,  -14.4,  -13.1,  -12.4,  -11.5,  -10.7,   -9.4,   -7.6,   -5.4,   -3.8,   -3.1,   -2.0,   -1.7,   -0.7,   -0.4,   -0.9,  999.0,  999.0,  999.0,  999.0,  999.0,  999.0,  999.0,  999.0,  999.0,  999.0,  999.0,  999.0,  999.0,  999.0,  999.0,  999.0,  999.0,  999.0,  999.0,  999.0,  999.0,  999.0,  999.0,  -55.7,  999.0,  999.0,  999.0,  999.0,  999.0,  999.0,  999.0,  999.0,  999.0,  999.0,  999.0
2005/08/25 15:40,  999.0,  999.0,  999.0,   -3.5,   -5.1,  -10.4,  -11.6,  -13.6,  -16.0,  -16.1,  -16.4,  -15.1,  -14.0,  999.0,  -13.1,  -13.4,  -12.9,  -11.4,  -10.3,   -9.2,   -8.1,   -6.5,   -6.2,   -4.3,   -3.2,   -2.2,   -1.6,   -0.6,    1.0,  999.0,    1.9,  999.0,  999.0,  999.0,  -27.5,  999.0,  999.0,  -55.2,  -55.3,  -55.2,  -55.4,  -55.4,  -55.3,  -55.2,  -55.4,  -55.2,  -55.3,  -55.4,  -55.3,  -55.4,  -55.6,  -55.7,  999.0,  -55.9,  999.0,  999.0,  999.0,  999.0,  999.0,  999.0,  999.0,  999.0,  999.0
2005/08/25 15:50,  999.0,  999.0,  999.0,   -8.7,  999.0,   -9.0,  -10.9,  -12.5,  -14.6,  -16.2,  -16.7,  -16.1,  -14.6,  -13.1,  -12.3,  -11.4,  999.0,  -10.5,   -9.4,   -8.0,   -6.6,   -5.6,   -3.8,   -2.9,   -1.4,   -0.7,    1.2,    1.4,    1.1,    1.3,    0.6,   -0.4,  999.0,  999.0,  999.0,  999.0,  999.0,  999.0,  999.0,  999.0,  999.0,  999.0,  999.0,  999.0,  999.0,  999.0,  999.0,  999.0,  999.0,  999.0,  999.0,  999.0,  999.0,  999.0,  999.0,  999.0,  999.0,  999.0,  999.0,  999.0,  999.0,  999.0,  999.0
2005/08/25 16:00,  999.0,  999.0,   -8.8,   -5.8,   -7.0,   -8.9,  -10.9,  -13.1,  -15.3,  -16.1,  -16.6,  -16.6,  -14.9,  -13.6,  -12.5,  -11.6,  -11.6,  -10.8,   -9.5,   -8.2,   -7.1,   -6.1,   -4.3,   -2.0,   -0.7,   -0.3,   -0.6,    0.0,    0.9,    1.9,    0.5,   -0.3,   -2.0,   -1.8,  999.0,   -3.2,  999.0,  999.0,  999.0,  999.0,  999.0,  999.0,  999.0,  999.0,  999.0,  999.0,  -16.1,   -9.2,  999.0,  999.0,  999.0,  999.0,  999.0,  999.0,  999.0,  999.0,  999.0,  999.0,  999.0,  999.0,  999.0,  999.0,  999.0
2005/08/25 16:10,  999.0,   -2.0,   -3.3,   -4.0,   -7.5,  -12.3,  -13.8,  -14.3,  -15.8,  -16.6,  -16.7,  -15.1,  -14.3,  -13.8,  -12.1,  -10.6,   -9.9,   -9.7,   -9.2,   -8.5,   -7.9,   -6.9,   -5.4,   -2.9,   -0.9,    0.6,    1.0,    1.0,    1.3,    1.4,   -0.1,   -0.6,   -2.0,  999.0,  999.0,   -2.3,   -2.6,  999.0,  999.0,   -1.0,  999.0,  999.0,  999.0,  999.0,  999.0,  999.0,   -0.2,  999.0,  999.0,  999.0,  999.0,  999.0,  999.0,  999.0,  999.0,  999.0,  999.0,  999.0,  999.0,  999.0,  999.0,  999.0,  999.0
2005/08/25 16:20,  999.0,   -2.0,   -3.3,   -5.1,   -7.4,  -12.9,  -12.5,  -13.6,  -14.8,  -16.3,  -16.1,  -15.2,  -14.9,  -14.0,  -12.2,  -10.2,   -9.9,  -10.1,   -9.8,   -9.5,   -8.8,   -7.1,   -6.2,   -4.9,   -3.3,   -1.1,    1.0,    0.8,    1.1,    0.8,    0.0,   -1.2,  999.0,  999.0,   -2.1,   -2.6,   -1.7,   -2.9,   -2.1,   -2.3,  999.0,  999.0,  999.0,  999.0,  999.0,  999.0,  999.0,  999.0,  999.0,  999.0,  999.0,  999.0,  999.0,  999.0,  999.0,  999.0,  999.0,  999.0,  999.0,  999.0,  999.0,  999.0,  999.0
2005/08/25 16:30,  999.0,   -2.0,   -3.3,   -5.0,   -7.9,  -12.3,  -11.7,  -14.9,  -14.6,  -15.4,  -15.4,  -15.1,  -14.3,  -13.2,  -12.6,  -11.5,  -10.4,  -10.4,   -8.7,   -8.1,   -7.8,   -6.4,   -5.6,   -4.1,   -3.5,   -1.6,    0.3,   -0.2,    1.2,    1.1,    0.8,    0.0,  999.0,  999.0,   -1.4,   -1.4,   -2.5,  999.0,  999.0,  999.0,   -1.2,  999.0,  999.0,  999.0,  999.0,  999.0,  999.0,  999.0,  999.0,  999.0,  999.0,  999.0,  999.0,  999.0,  999.0,  999.0,  999.0,  999.0,  999.0,  999.0,  999.0,  999.0,  999.0
2005/08/25 16:40,  999.0,   -2.6,   -4.1,   -6.6,   -7.6,   -9.4,  -10.5,  -11.8,  -14.4,  -15.2,  -14.6,  -13.5,  -12.6,  -12.0,  -11.9,  -11.4,  -11.0,  -11.0,   -9.4,   -7.6,   -5.8,   -4.2,   -3.7,   -2.0,   -1.0,    0.2,    2.0,    3.1,    2.8,    1.9,    1.2,   -0.3,  999.0,  999.0,  999.0,   -0.3,  999.0,  999.0,  999.0,   -0.6,   -1.2,  999.0,  999.0,  999.0,  999.0,  999.0,  999.0,    2.7,    2.9,    2.6,  999.0,  999.0,  999.0,  999.0,  999.0,  999.0,  999.0,  999.0,  999.0,  999.0,  999.0,  999.0,  999.0
2005/08/25 16:50,  999.0,   -8.7,   -7.1,   -9.3,   -8.8,  -10.2,  -10.9,  -12.6,  -14.6,  -15.5,  -14.9,  -13.1,  -12.0,  -12.3,  -13.2,  -12.3,  -11.8,  -11.6,  -10.7,   -8.9,   -6.7,   -4.9,   -3.6,   -1.9,   -0.5,    0.6,    1.5,    2.6,    1.1,  999.0,  999.0,  999.0,  999.0,  999.0,  999.0,   26.5,  999.0,  999.0,  999.0,  999.0,   27.8,   55.1,  999.0,  999.0,  999.0,  999.0,  999.0,  999.0,  999.0,  999.0,  999.0,  999.0,  999.0,  999.0,  999.0,  999.0,  999.0,  999.0,  999.0,  999.0,  999.0,  999.0,  999.0
2005/08/25 17:00,  999.0,   -5.3,   -5.9,   -6.0,   -6.3,   -6.9,   -9.0,  -10.2,  -11.5,  -13.4,  -12.9,  -13.3,  -13.7,  -13.7,  -14.5,  -15.1,  -15.3,  -14.2,  -12.6,  -11.7,   -9.3,   -4.8,   -2.6,   -1.6,    1.1,    1.5,    2.7,    3.3,    2.1,  999.0,  999.0,  999.0,  999.0,  999.0,  999.0,   27.7,   27.7,   27.6,   27.5,   27.2,  999.0,   27.6,   27.5,  999.0,  999.0,  999.0,  999.0,  999.0,  999.0,  999.0,  999.0,  999.0,  999.0,  999.0,  999.0,  999.0,  999.0,  999.0,  999.0,  999.0,  999.0,  999.0,  999.0
2005/08/25 17:10,  999.0,   -1.8,   -2.2,   -3.2,   -6.6,   -5.7,  -11.8,  -12.4,  -13.6,  -14.9,  -13.9,  -14.9,  -14.5,  -14.1,  -14.0,  -13.8,  999.0,  -10.0,  -10.8,   -8.6,   -6.1,   -3.4,    0.5,    0.3,    1.0,    2.0,    2.2,    1.9,    1.6,    2.1,  999.0,  999.0,  999.0,  999.0,  999.0,  999.0,  999.0,  999.0,  999.0,  999.0,  999.0,  999.0,  999.0,  999.0,  999.0,  999.0,  999.0,  999.0,    2.0,    2.9,   11.5,  999.0,  999.0,  999.0,  999.0,  999.0,  999.0,  999.0,  999.0,  999.0,  999.0,  999.0,  999.0
2005/08/25 17:20,  999.0,   -1.7,   -0.3,   -3.0,   -6.0,   -8.8,   -8.8,  -11.9,  -15.0,  -16.5,  -16.3,  -15.3,  -14.2,  -13.0,  -12.4,  -11.7,  999.0,  -10.7,   -7.1,  999.0,   -2.2,   -0.4,    1.2,    1.5,    1.5,    1.1,    0.6,    0.8,    1.2,    2.3,  999.0,  999.0,  999.0,  999.0,  999.0,  999.0,  999.0,  999.0,  999.0,  999.0,  999.0,  999.0,  999.0,  999.0,  999.0,  999.0,  999.0,   28.4,   29.2,   29.0,   29.4,  999.0,  999.0,  999.0,  999.0,  999.0,  999.0,  999.0,  999.0,  999.0,  999.0,  999.0,  999.0
2005/08/25 17:30,  999.0,    1.0,   -0.6,   -2.4,   -5.7,   -9.8,  -10.6,  -12.1,  -13.5,  -15.9,  -17.2,  -16.5,  -15.3,  -14.8,  -13.0,  -13.2,  -12.8,  -10.8,   -7.4,   -6.4,  999.0,    0.7,    1.4,    1.8,    3.0,    2.8,    2.6,    2.3,  999.0,  999.0,  999.0,  999.0,  999.0,  999.0,  999.0,  999.0,  999.0,  999.0,  999.0,  999.0,  999.0,  999.0,  999.0,  999.0,  999.0,  999.0,  999.0,  999.0,   27.9,   28.9,   28.5,  999.0,  999.0,  999.0,  999.0,  999.0,  999.0,  999.0,  999.0,  999.0,  999.0,  999.0,  999.0
2005/08/25 17:40,  999.0,    1.3,    0.7,   -1.4,   -3.2,   -6.3,   -7.6,   -9.8,  -12.8,  -14.3,  999.0,  -16.5,  -16.0,  -15.7,  -14.3,  -13.9,  -12.8,  -10.2,   -7.2,  999.0,   -2.0,    0.5,    1.8,    2.2,    1.7,    1.1,    1.2,    0.5,    1.0,    2.4,  999.0,  999.0,  999.0,  999.0,  999.0,  999.0,  999.0,  999.0,  999.0,  999.0,  999.0,  999.0,  999.0,  999.0,  999.0,  999.0,  999.0,  999.0,  999.0,   29.5,  999.0,  999.0,  999.0,  999.0,  999.0,  999.0,  999.0,  999.0,  999.0,  999.0,  999.0,  999.0,  999.0
2005/08/25 17:50,  999.0,    2.1,    0.4,   -0.6,   -1.5,   -2.3,   -5.3,   -8.3,  -11.2,  -13.5,  -14.2,  -15.7,  -16.2,  -15.5,  -13.9,  -12.4,  -11.5,   -8.1,   -5.1,   -3.3,   -1.0,    3.8,    1.8,    2.7,    2.0,    2.3,    2.0,    2.2,    0.7,   -0.5,  999.0,  999.0,  999.0,  999.0,  999.0,  999.0,  999.0,  999.0,  999.0,  999.0,  999.0,  999.0,  999.0,  999.0,  999.0,  999.0,  999.0,  999.0,   28.2,   28.7,  999.0,  999.0,  999.0,  999.0,  999.0,  999.0,  999.0,  999.0,  999.0,  999.0,  999.0,  999.0,  999.0
2005/08/25 18:00,  999.0,    2.3,    0.5,   -0.3,   -1.2,   -3.1,   -4.5,   -6.5,   -8.8,  -11.3,  -12.9,  -14.4,  -15.2,  -14.3,  -12.3,   -9.8,   -8.2,   -7.1,   -4.5,   -1.2,   -0.3,    1.7,    1.0,  999.0,    1.1,    2.5,    1.5,    2.0,    0.5,  999.0,  999.0,  999.0,  999.0,  999.0,  999.0,  999.0,  999.0,  999.0,  999.0,  999.0,  999.0,  999.0,  999.0,  999.0,  999.0,  999.0,  999.0,  999.0,  999.0,  999.0,  999.0,  999.0,  999.0,  999.0,  999.0,  999.0,  999.0,  999.0,  999.0,  999.0,  999.0,  999.0,  999.0
2005/08/25 18:10,  999.0,    4.3,    1.6,    1.1,    0.7,   -0.8,   -0.7,   -4.4,   -6.1,   -8.6,  -10.4,  -12.4,  -13.3,  -12.7,  -12.4,   -9.8,   -9.6,  999.0,   -0.7,    1.9,    4.2,    4.7,    4.6,    4.8,    4.2,    3.6,    2.5,    2.5,    0.5,  999.0,  999.0,  999.0,  999.0,  999.0,  999.0,  999.0,  999.0,  999.0,  999.0,  999.0,  999.0,  999.0,  999.0,  999.0,  999.0,  999.0,  999.0,  999.0,  999.0,  999.0,   19.0,  999.0,  999.0,  999.0,  999.0,  999.0,  999.0,  999.0,  999.0,  999.0,  999.0,  999.0,  999.0
2005/08/25 18:20,  999.0,    3.7,    0.8,    1.1,    1.2,  999.0,   -0.4,   -3.0,   -5.4,   -8.2,  -10.3,  -13.4,  -15.1,  -15.1,  -11.6,   -9.6,   -5.2,   -4.2,   -1.1,    1.6,    4.4,    5.4,    6.0,    5.4,  999.0,    3.0,    2.3,    1.0,  999.0,  999.0,  999.0,  999.0,   -1.7,    0.7,  999.0,  999.0,  999.0,   -0.1,  999.0,  999.0,  999.0,  999.0,  999.0,  999.0,  999.0,  999.0,  999.0,  999.0,  999.0,  999.0,  999.0,  999.0,  999.0,  999.0,  999.0,  999.0,  999.0,  999.0,  999.0,  999.0,  999.0,  999.0,  999.0
2005/08/25 18:30,  999.0,    4.9,    1.3,    0.3,    1.3,    1.6,    0.8,   -0.8,   -2.5,   -6.0,   -7.9,  -10.7,  -14.1,  -13.3,  -10.1,   -6.0,   -3.7,   -0.7,    2.0,    4.4,    5.6,    6.3,    5.8,    5.0,    2.5,  999.0,    1.5,    1.0,   -0.2,  999.0,  999.0,   -1.0,   -1.5,   -0.2,  999.0,  999.0,  999.0,   -1.7,  999.0,  999.0,  999.0,  999.0,  999.0,  999.0,  999.0,  999.0,  999.0,  999.0,  999.0,    2.4,  999.0,  999.0,  999.0,  999.0,  999.0,  999.0,  999.0,  999.0,  999.0,  999.0,  999.0,  999.0,  999.0
2005/08/25 18:40,  999.0,    4.5,    1.5,    1.0,    1.9,    2.1,    0.6,  999.0,   -2.0,   -4.2,   -6.9,   -9.5,  -11.1,  -11.8,   -9.9,   -5.2,   -1.8,    0.7,    2.8,    3.8,    5.0,    4.2,    4.8,    5.4,    4.2,    3.7,    2.5,    2.0,   -1.0,  999.0,  999.0,   -0.6,   -0.8,  999.0,  999.0,  999.0,  999.0,  999.0,  999.0,  999.0,  999.0,  999.0,  999.0,  999.0,  999.0,  999.0,  999.0,  999.0,  999.0,    2.0,  999.0,  999.0,  999.0,  999.0,  999.0,  999.0,  999.0,  999.0,  999.0,  999.0,  999.0,  999.0,  999.0
2005/08/25 18:50,  999.0,    3.7,    2.7,  999.0,  999.0,    1.1,    0.8,   -2.1,   -1.2,   -2.9,   -6.2,   -8.4,  -10.7,  -11.4,   -7.9,   -5.4,   -2.1,    0.1,    2.6,    3.9,    4.8,    5.2,    5.7,    5.8,    5.2,    3.4,  999.0,  999.0,    0.4,  999.0,  999.0,  999.0,  999.0,  999.0,  999.0,  999.0,  999.0,  999.0,  999.0,  999.0,  999.0,  999.0,  999.0,   26.8,  999.0,  999.0,   20.7,   27.7,  999.0,   28.6,  999.0,  999.0,  999.0,  999.0,  999.0,  999.0,  999.0,  999.0,  999.0,  999.0,  999.0,  999.0,  999.0
2005/08/25 19:00,  999.0,    2.5,    1.0,    3.2,    2.6,    2.3,    1.6,   -0.1,    0.1,   -3.1,   -6.0,   -8.6,  -10.4,  -10.4,   -6.3,   -2.8,   -0.9,  999.0,    3.5,    3.9,    4.7,    4.8,    5.4,    5.3,    4.5,    2.9,    2.1,  999.0,  999.0,  999.0,  999.0,  999.0,  999.0,  999.0,  999.0,  999.0,  999.0,  999.0,  999.0,  999.0,  -27.7,  -41.3,  -41.4,  999.0,  -41.5,  -14.2,   -4.6,  999.0,  999.0,  999.0,  999.0,  999.0,  999.0,  999.0,  999.0,  999.0,  999.0,  999.0,  999.0,  999.0,  999.0,  999.0,  999.0
2005/08/25 19:10,  999.0,    4.4,    2.7,    2.2,  999.0,    3.0,    0.8,    1.0,   -0.9,   -2.3,   -5.5,   -7.6,   -9.6,  -10.4,   -6.0,   -3.2,    0.5,    1.8,    4.3,    4.2,    4.2,    4.4,    4.3,    4.6,    3.4,    2.9,  999.0,  999.0,  999.0,  999.0,  999.0,  999.0,  999.0,  999.0,  999.0,  999.0,  999.0,  999.0,  999.0,    0.1,  999.0,    0.1,   -0.0,   -0.0,    0.1,    0.0,   -0.0,    0.0,    0.1,  999.0,  999.0,  999.0,  999.0,  999.0,  999.0,  999.0,  999.0,  999.0,  999.0,  999.0,  999.0,  999.0,  999.0
2005/08/25 19:20,  999.0,    3.9,    3.4,    2.2,    5.1,    5.0,    2.9,    1.0,    0.8,   -2.0,   -2.9,   -4.7,   -7.5,   -9.4,   -8.1,   -4.1,    0.5,  999.0,    2.4,    3.1,    3.2,    3.1,    4.2,    3.4,  999.0,    3.0,    1.8,  999.0,  999.0,  999.0,  999.0,  999.0,  999.0,  999.0,  999.0,  999.0,  999.0,  999.0,  999.0,  999.0,  999.0,    0.1,    0.1,  999.0,  999.0,  999.0,  999.0,    0.2,  999.0,  999.0,  999.0,  999.0,  999.0,  999.0,  999.0,  999.0,  999.0,  999.0,  999.0,  999.0,  999.0,  999.0,  999.0
2005/08/25 19:30,  999.0,    4.0,    4.7,    4.5,    6.3,    2.3,    2.0,    1.1,    0.8,    0.1,   -2.4,   -4.9,   -7.7,   -8.6,  999.0,   -6.1,   -2.3,    0.8,    2.4,    3.1,    3.7,    5.0,    5.8,    5.6,    4.8,    3.1,    1.7,    1.5,  999.0,    0.2,  999.0,   -0.2,  999.0,  999.0,  999.0,  999.0,  999.0,  999.0,  999.0,  999.0,  999.0,  999.0,  999.0,  999.0,  999.0,  999.0,  999.0,  999.0,  999.0,  999.0,  999.0,  999.0,  999.0,  999.0,  999.0,  999.0,  999.0,  999.0,  999.0,  999.0,  999.0,  999.0,  999.0
2005/08/25 19:40,  999.0,    3.4,    1.4,    3.0,    5.7,    4.8,    3.2,   -0.0,   -0.1,    0.1,   -3.1,   -4.9,   -7.2,  -10.2,   -9.7,   -5.7,   -1.4,    0.5,    2.0,    4.2,    4.4,    5.4,    5.5,    5.4,    4.1,    3.0,    1.8,    2.6,    1.2,    0.9,    1.4,  999.0,  999.0,  999.0,  999.0,  999.0,  999.0,  999.0,  999.0,  999.0,  999.0,  999.0,  -55.2,  -55.1,  -55.4,  -55.3,  -55.3,  -55.4,  -55.2,  -55.5,  -55.5,  999.0,  -55.9,  999.0,  999.0,  999.0,  999.0,  999.0,  999.0,  999.0,  999.0,  999.0,  999.0
2005/08/25 19:50,  999.0,  999.0,    1.1,    1.4,    1.9,    3.9,    4.3,    2.4,    3.1,    3.3,    4.0,    6.2,    2.6,  999.0,    4.6,    1.9,    2.0,    1.6,  999.0,    2.3,    3.2,    3.4,    4.2,  999.0,  999.0,  999.0,  999.0,  999.0,  999.0,    1.1,  999.0,  999.0,   -0.2,  999.0,  999.0,  999.0,  999.0,  999.0,  999.0,  999.0,  999.0,  999.0,  999.0,  999.0,  999.0,  999.0,  999.0,  -27.2,  999.0,  999.0,  999.0,  999.0,  999.0,  999.0,  999.0,  999.0,  999.0,  999.0,  999.0,  999.0,  999.0,  999.0,  999.0
2005/08/25 20:00,  999.0,   -0.2,   -2.0,   -1.1,   -0.4,  999.0,    0.1,    3.0,    3.5,    5.3,    5.8,    5.2,    6.2,    6.4,    6.1,    4.0,    4.2,    2.3,    2.3,    1.6,    2.0,    2.2,    2.4,    2.4,  999.0,  999.0,  999.0,    0.9,    2.6,  999.0,    2.2,    2.4,  999.0,  999.0,  999.0,  999.0,  999.0,  999.0,  999.0,  999.0,  999.0,  999.0,  999.0,  999.0,  999.0,  999.0,  999.0,  999.0,  999.0,  999.0,  999.0,  999.0,  999.0,  999.0,  999.0,  999.0,  999.0,  999.0,  999.0,  999.0,  999.0,  999.0,  999.0
2005/08/25 20:10,  999.0,   -1.5,   -0.6,   -0.9,   -0.9,    0.3,   -0.6,    1.7,    2.9,    4.6,  999.0,    5.4,    5.7,    6.5,    4.6,    5.2,    2.7,    4.0,  999.0,  999.0,    1.6,    1.4,    2.2,  999.0,  999.0,  999.0,  999.0,  999.0,  999.0,  999.0,  999.0,  999.0,  999.0,  999.0,  999.0,  999.0,  999.0,  999.0,  999.0,   55.3,   55.3,   55.4,   51.1,   52.0,   52.2,   55.5,   51.3,   55.3,   55.6,  999.0,  999.0,  999.0,  999.0,  999.0,  999.0,  999.0,  999.0,  999.0,  999.0,  999.0,  999.0,  999.0,  999.0
2005/08/25 20:20,  999.0,   -0.4,    0.3,    0.4,   -0.6,    0.2,    0.6,    0.2,    3.0,    4.5,    5.4,    6.2,    5.5,    7.1,    6.1,    5.0,  999.0,  999.0,    1.6,  999.0,    2.1,    2.6,  999.0,  999.0,  999.0,  999.0,  999.0,  999.0,  999.0,  999.0,   27.0,   27.1,   46.5,  999.0,  999.0,  999.0,   55.2,   55.2,   55.2,   55.2,   55.3,   55.3,   55.3,   55.4,   55.3,   55.4,   55.3,  999.0,   56.0,  999.0,   55.6,  999.0,  999.0,  999.0,  999.0,  999.0,  999.0,  999.0,  999.0,  999.0,  999.0,  999.0,  999.0
2005/08/25 20:30,  999.0,   -0.5,   -0.0,   -0.6,   -0.7,   -0.8,    0.9,    3.0,    3.8,    5.4,  999.0,  999.0,    4.7,    6.1,  999.0,  999.0,  999.0,  999.0,  999.0,  999.0,    2.3,    3.3,    4.9,  999.0,  999.0,  999.0,  999.0,  999.0,  999.0,  999.0,  999.0,  999.0,  999.0,  999.0,  999.0,   55.2,   55.2,   55.3,   55.4,   55.3,   55.2,   55.2,   55.3,   55.3,   55.3,   55.3,   55.4,   55.3,   55.5,   55.3,   55.4,   55.4,   55.5,  999.0,  999.0,   55.7,  999.0,  999.0,  999.0,  999.0,  999.0,  999.0,  999.0
2005/08/25 20:40,  999.0,  999.0,   -0.9,   -2.2,  999.0,    0.4,    0.4,    0.9,  999.0,    4.6,  999.0,  999.0,    3.8,  999.0,    4.8,    3.9,    4.5,    3.2,  999.0,  999.0,  999.0,    1.4,    3.7,    5.2,  999.0,  999.0,  999.0,  999.0,  999.0,  999.0,  999.0,   55.2,   55.2,   55.1,   55.2,   55.2,   55.2,   55.2,   55.2,   55.2,   55.2,   55.2,   55.3,   55.3,   55.4,  999.0,  999.0,  999.0,  999.0,  999.0,  999.0,  999.0,  999.0,  999.0,  999.0,  999.0,  999.0,  999.0,  999.0,  999.0,  999.0,  999.0,  999.0
2005/08/25 20:50,  999.0,  999.0,   -1.2,   -1.3,    0.5,   -0.8,    1.3,    2.5,    2.8,    5.2,    5.9,  999.0,    3.7,    4.1,    2.4,  999.0,    2.2,    1.7,   -0.2,    1.8,    1.3,    2.0,    2.9,    4.2,  999.0,  999.0,  999.0,  999.0,  999.0,  999.0,  999.0,  999.0,  999.0,  999.0,  999.0,  999.0,  999.0,   55.2,   55.3,   55.3,   55.2,   49.1,   49.3,   47.2,   35.6,   35.7,  999.0,  999.0,  999.0,  999.0,  999.0,  999.0,  999.0,  999.0,  999.0,  999.0,  999.0,  999.0,  999.0,  999.0,  999.0,  999.0,  999.0
2005/08/25 21:00,  999.0,  999.0,   -1.7,   -0.7,  999.0,   -1.2,   -0.2,    1.7,    3.1,  999.0,  999.0,    4.0,    4.4,    3.9,    2.1,  999.0,  999.0,   -0.2,    0.7,   -0.4,    0.0,    2.3,    2.9,    3.6,    2.6,    3.4,    2.3,  999.0,  999.0,    1.3,  999.0,  999.0,  999.0,  999.0,  999.0,  999.0,  999.0,  999.0,  -17.2,  -12.9,  -17.8,  -14.1,   -9.6,   -5.2,   -6.0,   -2.7,  999.0,   -9.4,  999.0,  999.0,  999.0,  999.0,  999.0,  999.0,  999.0,  999.0,  999.0,  999.0,  999.0,  999.0,  999.0,  999.0,  999.0
2005/08/25 21:10,  999.0,   -0.3,   -1.8,   -2.1,   -0.9,   -1.0,    2.2,    2.2,    3.1,    4.1,    6.0,    4.4,    2.9,    6.8,    3.3,    1.5,  999.0,  999.0,  999.0,   -2.2,    1.0,    2.0,    3.9,    3.4,    1.8,   -0.6,    0.7,  999.0,  999.0,  999.0,    4.1,  999.0,  999.0,   -0.1,   27.6,  999.0,   18.3,    9.4,   -7.3,   13.0,   15.7,   15.2,   16.9,   10.4,   10.2,   33.8,  999.0,  999.0,  999.0,    0.3,   13.5,  999.0,  999.0,   41.9,  999.0,  999.0,  999.0,  999.0,  999.0,  999.0,  999.0,  999.0,  999.0
2005/08/25 21:20,  999.0,    0.0,    1.4,   -1.1,   -0.3,    0.5,    1.2,  999.0,    3.6,    5.0,  999.0,    4.7,    2.0,    4.0,    2.7,  999.0,  999.0,    5.5,   -0.3,   -0.6,   -0.3,    1.0,    1.1,    2.5,  999.0,  999.0,    1.0,  999.0,  999.0,  999.0,  999.0,  999.0,  999.0,   27.6,   27.6,   18.4,   20.7,   20.7,   27.6,   20.7,   27.6,   18.3,   14.4,   14.4,   19.7,  999.0,  999.0,  999.0,  999.0,  999.0,  999.0,  999.0,  999.0,  999.0,  999.0,  999.0,  999.0,  999.0,  999.0,  999.0,  999.0,  999.0,  999.0
2005/08/25 21:30,  999.0,   -1.0,   -0.7,   -0.5,   -0.2,   -0.1,    1.4,    2.9,    3.9,    4.3,    3.7,    2.4,    4.0,    4.8,  999.0,    1.1,   -0.5,    1.4,    0.8,    1.8,    1.8,    2.6,    2.1,    2.2,    2.2,    2.8,    1.7,    0.4,  999.0,  999.0,  999.0,  999.0,  999.0,  999.0,  999.0,  999.0,  999.0,  999.0,  999.0,  999.0,  999.0,   13.0,    7.7,   17.0,   26.9,   27.0,   26.1,  999.0,   15.5,  999.0,   41.4,  999.0,  999.0,  999.0,  999.0,  999.0,  999.0,  999.0,  999.0,  999.0,  999.0,  999.0,  999.0
2005/08/25 21:40,  999.0,   -0.9,   -0.4,   -0.6,   -0.6,    0.3,    1.9,    3.5,    6.5,    8.0,  999.0,  999.0,   -1.0,    0.7,    1.0,    4.8,    1.4,   -0.9,  999.0,    0.3,    0.8,    2.3,    2.5,    3.6,    3.3,    2.6,    1.7,    1.5,  999.0,  999.0,  999.0,  999.0,  999.0,  999.0,  999.0,  999.0,  999.0,  999.0,  999.0,  999.0,  999.0,   18.3,   15.5,   17.9,   25.9,   25.7,  999.0,  999.0,  999.0,  999.0,  999.0,  999.0,  999.0,  999.0,  999.0,  999.0,  999.0,  999.0,  999.0,  999.0,  999.0,  999.0,  999.0
2005/08/25 21:50,  999.0,   -1.2,   -1.9,   -1.0,   -0.4,    0.3,    1.5,    4.1,    4.7,    3.6,    3.5,    1.7,    0.0,    0.3,   -1.2,   -1.8,   -2.0,   -3.9,    0.5,    0.5,    1.1,    1.9,    2.6,    2.9,    2.4,    1.8,    0.4,  999.0,  999.0,  999.0,  999.0,  999.0,  999.0,  999.0,  999.0,  999.0,  999.0,  -27.6,  999.0,  999.0,    6.9,  999.0,    6.1,   13.7,   25.3,   25.3,  999.0,  999.0,  999.0,  999.0,  999.0,  999.0,  999.0,  999.0,  999.0,  999.0,  999.0,  999.0,  999.0,  999.0,  999.0,  999.0,  999.0
2005/08/25 22:00,  999.0,   -1.2,   -1.2,   -0.4,   -0.8,   -0.1,    1.2,    3.3,  999.0,   -1.5,    3.8,    0.7,  999.0,    0.4,    0.8,    0.1,    1.5,   -0.0,   -0.8,   -0.5,    1.4,    1.6,    1.9,    2.6,    2.4,    1.8,   -0.2,  999.0,  999.0,  999.0,  999.0,  999.0,  999.0,  999.0,  999.0,  999.0,  999.0,  999.0,  999.0,  999.0,   26.0,  999.0,  999.0,    1.0,   13.8,  999.0,  999.0,  999.0,  999.0,  999.0,  999.0,  999.0,  999.0,  999.0,  999.0,  999.0,  999.0,  999.0,  999.0,  999.0,  999.0,  999.0,  999.0
2005/08/25 22:10,  999.0,   -3.4,   -2.5,   -0.8,   -1.3,   -0.5,    2.2,    3.2,    1.4,    1.4,  999.0,  999.0,  999.0,   -1.1,  999.0,   -1.6,    2.0,  999.0,  999.0,   -0.9,  999.0,  999.0,  999.0,    2.8,    1.1,  999.0,   -0.9,  999.0,  999.0,  999.0,  999.0,   27.6,   27.3,   27.3,   27.6,   25.9,   40.5,   24.0,   27.4,   33.5,   26.1,   23.7,   23.7,   28.9,   25.6,  999.0,   17.4,   27.6,   20.2,  999.0,  999.0,  999.0,  999.0,  999.0,  999.0,  999.0,  999.0,  999.0,  999.0,  999.0,  999.0,  999.0,  999.0
2005/08/25 22:20,  999.0,   -1.3,   -3.2,   -0.3,   -0.8,    0.4,    1.1,    5.2,    3.4,  999.0,  999.0,  999.0,  999.0,  999.0,    0.4,   -0.4,   -0.3,  999.0,  999.0,  999.0,  999.0,  999.0,  999.0,    1.9,  999.0,    0.9,    0.6,  999.0,  999.0,  999.0,  999.0,  999.0,   27.4,   27.7,   27.6,   41.2,   44.9,   46.9,   44.0,   44.7,   41.0,   48.2,   44.3,   34.0,   40.8,   55.4,   41.4,   41.2,   41.6,   55.2,   55.1,  999.0,  999.0,  999.0,  999.0,  999.0,  999.0,  999.0,  999.0,  999.0,  999.0,  999.0,  999.0
2005/08/25 22:30,  999.0,   -1.7,   -2.5,    0.3,   -0.3,   -0.4,    1.3,    4.8,    3.9,    2.2,  999.0,  999.0,  999.0,  999.0,  999.0,  999.0,    2.5,  999.0,  999.0,  999.0,  999.0,  999.0,  999.0,  999.0,  999.0,  999.0,  999.0,  999.0,  999.0,  999.0,  999.0,  999.0,   -0.1,   -0.0,   -0.1,  999.0,   -0.1,   -0.1,    0.1,  999.0,   18.4,   18.4,   27.6,   18.4,   13.9,   13.9,   -4.4,   27.7,  999.0,   18.3,   13.7,   27.6,   -0.0,   -0.1,  999.0,  999.0,  999.0,  999.0,  999.0,  999.0,  999.0,  999.0,  999.0
2005/08/25 22:40,  999.0,   -0.8,   -0.8,   -0.1,   -0.7,    0.2,    2.0,    2.8,  999.0,  999.0,    3.4,   -0.2,  999.0,  999.0,  999.0,    2.9,    2.3,    0.7,   -2.1,  999.0,  999.0,  999.0,  999.0,  999.0,  999.0,  999.0,  999.0,  999.0,  999.0,  999.0,  999.0,   -0.1,    0.0,    0.0,   -0.0,   -0.0,   -0.0,    0.0,   -0.1,    0.0,   -2.3,   -2.4,   -2.4,   -2.4,    0.0,   -0.1,    0.0,    0.0,   -0.1,   -0.0,    0.2,   -0.2,   -0.0,   -0.0,  999.0,  999.0,  999.0,  999.0,  999.0,  999.0,  999.0,  999.0,  999.0
2005/08/25 22:50,  999.0,   -0.7,   -0.9,    0.4,    0.2,    0.2,    2.9,    5.7,  999.0,  999.0,  999.0,  999.0,   -0.5,  999.0,  999.0,    2.0,    1.5,    0.3,    0.4,    1.8,  999.0,  999.0,    1.0,  999.0,  999.0,  999.0,  999.0,  999.0,  999.0,  999.0,  999.0,  999.0,  999.0,  999.0,  999.0,  999.0,    0.0,    0.1,    0.1,   -0.0,    0.1,   -0.1,    0.2,   -0.1,   -0.0,   -0.1,   -0.0,   -0.1,   -0.0,  999.0,  999.0,  999.0,  999.0,  999.0,  999.0,  999.0,  999.0,  999.0,  999.0,  999.0,  999.0,  999.0,  999.0
2005/08/25 23:00,  999.0,   -1.0,   -0.7,    0.7,    0.3,   -0.2,    2.0,    4.4,    3.0,    5.2,    1.6,    0.6,    3.6,  999.0,   -0.7,  999.0,  999.0,    1.1,    0.4,  999.0,  999.0,    0.5,    1.4,   -0.3,   -0.7,  999.0,  999.0,  999.0,  999.0,  999.0,  999.0,  999.0,  999.0,  999.0,  999.0,  999.0,  999.0,  999.0,  999.0,   27.7,  999.0,  999.0,   13.9,   20.8,   27.6,   13.8,    0.1,    6.9,   16.5,   13.8,   18.3,   21.0,  999.0,  999.0,  999.0,  999.0,  999.0,  999.0,  999.0,  999.0,  999.0,  999.0,  999.0
2005/08/25 23:10,  999.0,   -1.2,   -1.4,    0.5,   -0.4,    0.5,    2.2,  999.0,  999.0,    4.4,  999.0,    4.1,   -0.6,   -1.6,  999.0,   -4.5,  999.0,   -2.9,   -2.2,  999.0,  999.0,  999.0,    0.2,   -1.1,   -2.1,  999.0,  999.0,  999.0,    0.3,  999.0,  999.0,  999.0,  999.0,  999.0,  999.0,  999.0,  999.0,  999.0,  999.0,  999.0,  999.0,  999.0,  999.0,  999.0,  999.0,  999.0,  999.0,    0.1,   -0.3,    0.1,   -0.0,  999.0,  999.0,   -0.0,  999.0,  999.0,  999.0,  999.0,  999.0,  999.0,  999.0,  999.0,  999.0
2005/08/25 23:20,  999.0,   -1.5,   -1.3,    0.7,   -0.2,    0.3,    1.5,    5.7,  999.0,    2.5,    4.1,    0.0,    1.9,    2.2,    2.1,   -2.3,  999.0,  999.0,  999.0,  999.0,  999.0,  999.0,   -0.5,   -1.8,   -2.3,   -2.2,    0.8,  999.0,  999.0,  999.0,  999.0,  999.0,  999.0,  999.0,   38.0,   38.3,   39.0,  999.0,  999.0,  999.0,  999.0,  999.0,   47.1,   55.2,   55.5,   55.4,   55.4,   55.4,   37.0,   36.7,  999.0,  999.0,   27.7,   27.7,  999.0,  999.0,  999.0,  999.0,  999.0,  999.0,  999.0,  999.0,  999.0
2005/08/25 23:30,  999.0,   -1.8,   -0.8,   -0.2,   -0.8,   -0.2,    1.6,    3.8,    2.7,    4.1,    3.6,  999.0,    3.2,    4.2,  999.0,  999.0,  999.0,  999.0,    0.8,  999.0,   -0.3,   -0.0,   -0.8,   -1.1,   -1.1,   -1.0,  999.0,  999.0,  999.0,  999.0,  999.0,  999.0,  999.0,  999.0,   12.1,  999.0,  999.0,  999.0,   13.8,   -0.0,   13.9,   10.7,   -0.1,   12.0,   27.8,   -0.1,   18.6,  999.0,    0.1,   -0.1,  999.0,  999.0,   -0.2,  999.0,  999.0,  999.0,  999.0,  999.0,  999.0,  999.0,  999.0,  999.0,  999.0
2005/08/25 23:40,  999.0,   -1.8,   -1.7,   -0.9,   -0.4,    0.1,    1.2,    3.7,  999.0,    4.0,  999.0,    4.1,    3.1,  999.0,  999.0,  999.0,  999.0,  999.0,  999.0,  999.0,  999.0,   -0.6,   -0.4,   -0.9,  999.0,  999.0,  999.0,  999.0,  999.0,  999.0,  999.0,  999.0,  999.0,  999.0,  -15.0,  999.0,   -0.0,    0.1,   -0.4,   -9.3,  -18.4,   -6.9,   -9.1,  -18.4,   -0.0,   -0.1,    0.1,  999.0,  999.0,  999.0,  999.0,  999.0,  999.0,  999.0,  999.0,  999.0,  999.0,  999.0,  999.0,  999.0,  999.0,  999.0,  999.0
2005/08/25 23:50,  999.0,   -1.6,   -2.1,   -0.4,   -0.8,   -0.4,    1.5,    3.4,    7.1,    6.2,    5.7,    5.0,    1.9,    5.1,    3.0,    0.9,   -0.1,    0.3,   -0.2,   -0.7,   -0.8,   -0.8,   -0.9,   -0.6,  999.0,   -0.2,  999.0,  999.0,  999.0,  999.0,  999.0,  999.0,  999.0,  999.0,  999.0,  999.0,   -0.0,    0.0,    0.0,   -0.1,    0.0,  999.0,  999.0,  999.0,    0.2,    0.1,  999.0,    0.1,  999.0,  999.0,  999.0,  999.0,  999.0,  -27.6,  999.0,  999.0,  999.0,  999.0,  999.0,  999.0,  999.0,  999.0,  999.0
